DW1785 Weather Reports


Display with metric or nautical units.
time (UTC)temp
F
wind
direction
speed
MPH
gust
MPH
rain 1hr
in
rain 24hr
in
rain mn
in
humidity
%
barometer
mb
20220706064518 79 241 0.0 0.0 0.00 0.00 0.00 100 1005.8
20220706064437 79 261 0.0 0.0 0.00 0.00 0.00 100 1005.8
20220706064416 79 262 0.0 0.0 0.00 0.00 0.00 100 1005.8
20220706064334 79 238 0.0 0.0 0.00 0.00 0.00 100 1005.8
20220706064209 79 192 0.0 0.0 0.00 0.00 0.00 100 1005.9
20220706064046 79 192 0.0 0.0 0.00 0.00 0.00 100 1005.8
20220706063922 79 212 0.0 0.0 0.00 0.00 0.00 100 1005.8
20220706063900 79 211 0.0 0.0 0.00 0.00 0.00 100 1005.8
20220706063819 79 185 0.0 0.0 0.00 0.00 0.00 100 1005.7
20220706063758 80 150 0.0 0.0 0.00 0.00 0.00 100 1005.7
20220706063634 79 244 0.0 0.0 0.00 0.00 0.00 100 1005.8
20220706063551 79 200 0.0 0.0 0.00 0.00 0.00 100 1005.8
20220706063530 79 203 0.0 0.0 0.00 0.00 0.00 100 1005.8
20220706063449 79 179 0.0 0.0 0.00 0.00 0.00 100 1005.8
20220706063407 79 211 0.0 0.0 0.00 0.00 0.00 100 1005.8
20220706063324 79 211 0.0 0.0 0.00 0.00 0.00 100 1005.8
20220706063243 79 189 0.0 0.0 0.00 0.00 0.00 100 1005.8
20220706063201 79 198 0.0 0.0 0.00 0.00 0.00 100 1005.8
20220706063100 79 248 0.0 0.0 0.00 0.00 0.00 100 1005.8
20220706062957 79 232 0.0 0.0 0.00 0.00 0.00 100 1005.7
20220706062854 79 214 0.0 0.0 0.00 0.00 0.00 100 1005.7
20220706062833 79 213 0.0 0.0 0.00 0.00 0.00 100 1005.7
20220706062752 79 219 0.0 0.0 0.00 0.00 0.00 100 1005.8
20220706062710 79 233 0.0 0.0 0.00 0.00 0.00 100 1005.7
20220706062628 79 238 0.0 0.0 0.00 0.00 0.00 100 1005.7
20220706062504 79 238 0.0 0.0 0.00 0.00 0.00 100 1005.8
20220706062422 78 238 0.0 0.0 0.00 0.00 0.00 100 1005.8
20220706062340 78 232 0.0 0.0 0.00 0.00 0.00 100 1005.7
20220706062258 78 219 0.0 0.0 0.00 0.00 0.00 100 1005.8
20220706062134 78 219 0.0 0.0 0.00 0.00 0.00 100 1005.8
20220706062112 78 243 0.0 0.0 0.00 0.00 0.00 100 1005.7
20220706062051 78 248 0.0 0.0 0.00 0.00 0.00 100 1005.7
20220706062030 78 238 0.0 0.0 0.00 0.00 0.00 100 1005.7
20220706061949 78 217 0.0 0.0 0.00 0.00 0.00 100 1005.7
20220706061907 78 217 0.0 0.0 0.00 0.00 0.00 100 1005.7
20220706061825 78 217 0.0 0.0 0.00 0.00 0.00 100 1005.7
20220706061619 78 212 0.0 0.0 0.00 0.00 0.00 100 1005.8
20220706061536 78 195 0.0 0.0 0.00 0.00 0.00 100 1005.8
20220706061515 78 195 0.0 0.0 0.00 0.00 0.00 100 1005.7
20220706061435 78 195 0.0 0.0 0.00 0.00 0.00 100 1005.7
20220706061351 78 205 0.0 0.0 0.00 0.00 0.00 100 1005.7
20220706061309 78 250 0.0 0.0 0.00 0.00 0.00 100 1005.6
20220706061249 78 205 0.0 0.0 0.00 0.00 0.00 100 1005.6
20220706061207 78 156 0.0 0.0 0.00 0.00 0.00 100 1005.7
20220706061043 78 209 0.0 0.0 0.00 0.00 0.00 100 1005.7
20220706061001 78 209 0.0 0.0 0.00 0.00 0.00 100 1005.6
20220706060713 78 221 0.0 0.0 0.00 0.00 0.00 100 1005.6
20220706060652 78 222 0.0 0.0 0.00 0.00 0.00 100 1005.6
20220706060528 78 235 0.0 0.0 0.00 0.00 0.00 100 1005.6
20220706060403 77 235 0.0 0.0 0.00 0.00 0.00 100 1005.6
20220706060321 77 235 0.0 0.0 0.00 0.00 0.00 100 1005.6
20220706060300 77 236 0.0 0.0 0.00 0.00 0.00 100 1005.7
20220706060136 77 236 0.0 0.0 0.00 0.00 0.00 100 1005.7
20220706060054 77 244 0.0 0.0 0.00 0.00 0.00 100 1005.7
20220706060033 77 241 0.0 0.0 0.00 0.00 0.00 100 1005.7
20220706055951 77 251 0.0 0.0 0.00 0.00 0.00 100 1005.8
20220706055910 77 251 0.0 0.0 0.00 0.00 0.00 100 1005.7
20220706055828 77 227 0.0 0.0 0.00 0.00 0.00 100 1005.7
20220706055621 78 249 0.0 0.0 0.00 0.00 0.00 100 1005.7
20220706055600 78 254 0.0 0.0 0.00 0.00 0.00 100 1005.8
20220706055419 77 265 0.0 0.0 0.00 0.00 0.00 100 1005.8
20220706055256 77 205 0.0 0.0 0.00 0.00 0.00 100 1005.8
20220706055212 77 205 0.0 0.0 0.00 0.00 0.00 100 1005.8
20220706055132 77 200 0.0 0.0 0.00 0.00 0.00 100 1005.8
20220706055007 77 234 0.0 0.0 0.00 0.00 0.00 100 1005.9
20220706054925 77 234 0.0 0.0 0.00 0.00 0.00 100 1005.9
20220706054822 77 236 0.0 0.0 0.00 0.00 0.00 100 1005.9
20220706054740 77 240 0.0 0.0 0.00 0.00 0.00 100 1006.1
20220706054615 77 242 0.0 0.0 0.00 0.00 0.00 100 1006.0
20220706054452 77 242 0.0 0.0 0.00 0.00 0.00 100 1006.0
20220706054410 77 242 0.0 0.0 0.00 0.00 0.00 100 1006.0
20220706054307 77 242 0.0 0.0 0.00 0.00 0.00 100 1006.0
20220706054207 77 221 0.0 0.0 0.00 0.00 0.00 100 1005.9
20220706054125 77 221 0.0 0.0 0.00 0.00 0.00 100 1005.9
20220706054104 77 221 0.0 0.0 0.00 0.00 0.00 100 1006.0
20220706054004 77 225 0.0 0.0 0.00 0.00 0.00 100 1005.9
20220706053921 77 197 0.0 0.0 0.00 0.00 0.00 100 1005.9
20220706053839 77 196 0.0 0.0 0.00 0.00 0.00 100 1006.0
20220706053715 77 197 0.0 0.0 0.00 0.00 0.00 100 1006.0
20220706053634 77 196 0.0 0.0 0.00 0.00 0.00 100 1006.0
20220706053551 77 196 0.0 0.0 0.00 0.00 0.00 100 1005.9
20220706053509 77 198 0.0 0.0 0.00 0.00 0.00 100 1005.9
20220706053346 77 197 0.0 0.0 0.00 0.00 0.00 100 1005.9
20220706053304 77 196 0.0 0.0 0.00 0.00 0.00 100 1005.8
20220706053140 77 191 0.0 0.0 0.00 0.00 0.00 100 1005.8
20220706053058 77 171 0.0 0.0 0.00 0.00 0.00 100 1005.9
20220706052934 77 221 0.0 0.0 0.00 0.00 0.00 100 1005.9
20220706052851 77 180 0.0 0.0 0.00 0.00 0.00 100 1005.9
20220706052728 77 180 0.0 0.0 0.00 0.00 0.00 100 1005.9
20220706052646 77 217 0.0 0.0 0.00 0.00 0.00 100 1005.9
20220706052522 76 246 0.0 0.0 0.00 0.00 0.00 100 1005.9
20220706052439 76 231 0.0 0.0 0.00 0.00 0.00 100 1006.0
20220706052319 76 213 0.0 0.0 0.00 0.00 0.00 100 1006.0
20220706052237 76 210 0.0 0.0 0.00 0.00 0.00 100 1006.0
20220706052155 76 210 0.0 0.0 0.00 0.00 0.00 100 1006.0
20220706052113 76 210 0.0 0.0 0.00 0.00 0.00 100 1006.0
20220706052051 76 210 0.0 0.0 0.00 0.00 0.00 100 1006.0
20220706052013 76 215 0.0 0.0 0.00 0.00 0.00 100 1005.9
20220706051931 76 165 0.0 0.0 0.00 0.00 0.00 100 1005.9
20220706051809 76 188 0.0 0.0 0.00 0.00 0.00 100 1005.9
20220706051606 76 180 0.0 0.0 0.00 0.00 0.00 100 1005.8
20220706051525 75 259 0.0 0.0 0.00 0.00 0.00 100 1005.8
20220706051443 75 247 0.0 0.0 0.00 0.00 0.00 100 1005.9
20220706051404 75 217 0.0 0.0 0.00 0.00 0.00 100 1005.8
20220706051322 75 244 0.0 0.0 0.00 0.00 0.00 100 1005.8
20220706051240 75 239 0.0 0.0 0.00 0.00 0.00 100 1005.7
20220706051200 75 233 0.0 0.0 0.00 0.00 0.00 100 1005.7
20220706051037 75 250 0.0 0.0 0.00 0.00 0.00 100 1005.7
20220706050936 75 250 0.0 0.0 0.00 0.00 0.00 100 1005.7
20220706050855 75 250 0.0 0.0 0.00 0.00 0.00 100 1005.8
20220706050730 75 232 0.0 0.0 0.00 0.00 0.00 100 1005.7
20220706050649 75 242 0.0 0.0 0.00 0.00 0.00 100 1005.7
20220706050607 75 221 0.0 0.0 0.00 0.00 0.00 100 1005.7
20220706050546 75 250 0.0 0.0 0.00 0.00 0.00 100 1005.7
20220706050503 75 244 0.0 0.0 0.00 0.00 0.00 100 1005.7
20220706050422 75 224 0.0 0.0 0.00 0.00 0.00 100 1005.7
20220706050339 75 190 0.0 0.0 0.00 0.00 0.00 100 1005.7
20220706050236 75 190 0.0 0.0 0.00 0.00 0.00 100 1005.6
20220706050154 75 174 0.0 0.0 0.00 0.00 0.00 100 1005.6
20220706050051 75 216 0.0 0.0 0.00 0.00 0.00 100 1005.6
20220706045948 75 216 0.0 0.0 0.00 0.00 0.00 100 1005.6
20220706045907 75 199 0.0 0.0 0.00 0.00 0.00 100 1005.6
20220706045845 75 199 0.0 0.0 0.00 0.00 0.00 100 1005.6
20220706045824 75 196 0.0 0.0 0.00 0.00 0.00 100 1005.6
20220706045742 75 182 0.0 0.0 0.00 0.00 0.00 100 1005.6
20220706045700 75 211 0.0 0.0 0.00 0.00 0.00 100 1005.6
20220706045639 75 225 0.0 0.0 0.00 0.00 0.00 100 1005.6
20220706045536 75 246 0.0 0.0 0.00 0.00 0.00 100 1005.6
20220706045455 75 247 0.0 0.0 0.00 0.00 0.00 100 1005.6
20220706045413 75 238 0.0 0.0 0.00 0.00 0.00 100 1005.6
20220706045331 74 218 0.0 0.0 0.00 0.00 0.00 100 1005.6
20220706045227 74 211 0.0 0.0 0.00 0.00 0.00 100 1005.6
20220706045149 74 217 0.0 0.0 0.00 0.00 0.00 100 1005.6
20220706045127 74 202 0.0 0.0 0.00 0.00 0.00 100 1005.6
20220706045046 74 175 0.0 0.0 0.00 0.00 0.00 100 1005.6
20220706044922 74 193 0.0 0.0 0.00 0.00 0.00 100 1005.6
20220706044840 74 184 0.0 0.0 0.00 0.00 0.00 100 1005.6
20220706044758 74 150 0.0 0.0 0.00 0.00 0.00 100 1005.6
20220706044715 74 191 0.0 0.0 0.00 0.00 0.00 100 1005.6
20220706044428 74 214 0.0 0.0 0.00 0.00 0.00 100 1005.5
20220706044346 74 216 0.0 0.0 0.00 0.00 0.00 100 1005.5
20220706044200 74 211 0.0 0.0 0.00 0.00 0.00 100 1005.5
20220706044119 74 178 0.0 0.0 0.00 0.00 0.00 100 1005.5
20220706044037 74 184 0.0 0.0 0.00 0.00 0.00 100 1005.5
20220706043955 74 196 0.0 0.0 0.00 0.00 0.00 100 1005.5
20220706043913 74 212 0.0 0.0 0.00 0.00 0.00 100 1005.5
20220706043748 73 169 0.0 0.0 0.00 0.00 0.00 100 1005.5
20220706043710 73 183 0.0 0.0 0.00 0.00 0.00 100 1005.4
20220706043628 73 182 0.0 0.0 0.00 0.00 0.00 100 1005.4
20220706043524 73 182 0.0 0.0 0.00 0.00 0.00 100 1005.4
20220706043322 73 202 0.0 0.0 0.00 0.00 0.00 100 1005.4
20220706043240 73 182 0.0 0.0 0.00 0.00 0.00 100 1005.5
20220706043119 73 167 0.0 0.0 0.00 0.00 0.00 100 1005.4
20220706043037 73 162 0.0 0.0 0.00 0.00 0.00 100 1005.4
20220706042955 73 172 0.0 0.0 0.00 0.00 0.00 100 1005.4
20220706042913 72 184 0.0 0.0 0.00 0.00 0.00 100 1005.4
20220706042851 72 187 0.0 0.0 0.00 0.00 0.00 100 1005.4
20220706042810 72 145 0.0 0.0 0.00 0.00 0.00 100 1005.4
20220706042728 72 145 0.0 0.0 0.00 0.00 0.00 100 1005.4
20220706042646 72 145 0.0 0.0 0.00 0.00 0.00 100 1005.4
20220706042603 72 145 0.0 0.0 0.00 0.00 0.00 100 1005.5
20220706042522 72 143 0.0 0.0 0.00 0.00 0.00 100 1005.5
20220706042358 72 141 0.0 0.0 0.00 0.00 0.00 100 1005.5
20220706042316 72 141 0.0 0.0 0.00 0.00 0.00 100 1005.4
20220706042234 72 140 0.0 0.0 0.00 0.00 0.00 100 1005.4
20220706042153 72 139 0.0 0.0 0.00 0.00 0.00 100 1005.5
20220706042110 72 139 0.0 0.0 0.00 0.00 0.00 100 1005.5
20220706042049 71 139 0.0 0.0 0.00 0.00 0.00 100 1005.5
20220706042007 71 134 0.0 0.0 0.00 0.00 0.00 100 1005.6
20220706041925 71 139 0.0 0.0 0.00 0.00 0.00 100 1005.6
20220706041801 71 178 0.0 0.0 0.00 0.00 0.00 100 1005.5
20220706041740 71 178 0.0 0.0 0.00 0.00 0.00 100 1005.5
20220706041616 71 324 0.0 0.0 0.00 0.00 0.00 100 1005.5
20220706041533 71 324 0.0 0.0 0.00 0.00 0.00 100 1005.5
20220706041454 71 324 0.0 0.0 0.00 0.00 0.00 100 1005.6
20220706041412 71 324 0.0 0.0 0.00 0.00 0.00 100 1005.5
20220706041330 71 317 0.0 0.0 0.00 0.00 0.00 100 1005.5
20220706041127 71 318 0.0 0.0 0.00 0.00 0.00 100 1005.5
20220706041007 70 318 0.0 0.0 0.00 0.00 0.00 100 1005.5
20220706040924 70 318 0.0 0.0 0.00 0.00 0.00 100 1005.5
20220706040846 70 318 0.0 0.0 0.00 0.00 0.00 100 1005.5
20220706040804 70 318 0.0 0.0 0.00 0.00 0.00 100 1005.5
20220706040721 70 318 0.0 0.0 0.00 0.00 0.00 100 1005.5
20220706040519 70 318 0.0 0.0 0.00 0.00 0.00 100 1005.6
20220706040217 70 318 0.0 0.0 0.00 0.00 0.00 100 1005.7
20220706040134 70 318 0.0 0.0 0.00 0.00 0.00 100 1005.7
20220706040052 70 318 0.0 0.0 0.00 0.00 0.00 100 1005.5
20220706035846 69 316 0.0 0.0 0.00 0.00 0.00 100 1005.5
20220706035742 69 318 0.0 0.0 0.00 0.00 0.00 100 1005.5
20220706035701 69 318 0.0 0.0 0.00 0.00 0.00 100 1005.5
20220706035537 69 318 0.0 0.0 0.00 0.00 0.00 100 1005.6
20220706035455 69 318 0.0 0.0 0.00 0.00 0.00 100 1005.5
20220706035413 69 318 0.0 0.0 0.00 0.00 0.00 100 1005.5
20220706035331 69 318 0.0 0.0 0.00 0.00 0.00 100 1005.5
20220706035227 69 318 0.0 0.0 0.00 0.00 0.00 100 1005.6
20220706035124 69 318 0.0 0.0 0.00 0.00 0.00 100 1005.4
20220706035000 69 318 0.0 0.0 0.00 0.00 0.00 100 1005.5
20220706034918 69 318 0.0 0.0 0.00 0.00 0.00 100 1005.5
20220706034837 69 318 0.0 0.0 0.00 0.00 0.00 100 1005.5
20220706034755 69 318 0.0 0.0 0.00 0.00 0.00 100 1005.5
20220706034713 69 318 0.0 0.0 0.00 0.00 0.00 100 1005.4
20220706034652 69 318 0.0 0.0 0.00 0.00 0.00 100 1005.4
20220706034609 69 318 0.0 0.0 0.00 0.00 0.00 100 1005.5
20220706034527 69 318 0.0 0.0 0.00 0.00 0.00 100 1005.5
20220706034506 69 316 0.0 0.0 0.00 0.00 0.00 100 1005.5
20220706034428 69 318 0.0 0.0 0.00 0.00 0.00 100 1005.5
20220706034345 68 318 0.0 0.0 0.00 0.00 0.00 100 1005.6
20220706034303 68 318 0.0 0.0 0.00 0.00 0.00 100 1005.5
20220706034203 68 318 0.0 0.0 0.00 0.00 0.00 100 1005.5
20220706034142 68 316 0.0 0.0 0.00 0.00 0.00 100 1005.5
20220706034100 68 318 0.0 0.0 0.00 0.00 0.00 100 1005.6
20220706034021 68 318 0.0 0.0 0.00 0.00 0.00 100 1005.6
20220706033939 68 318 0.0 0.0 0.00 0.00 0.00 100 1005.5
20220706033836 68 318 0.0 0.0 0.00 0.00 0.00 100 1005.5
20220706033755 68 318 0.0 0.0 0.00 0.00 0.00 100 1005.5
20220706033609 68 318 0.0 0.0 0.00 0.00 0.00 100 1005.5
20220706033528 68 318 0.0 0.0 0.00 0.00 0.00 100 1005.5
20220706033446 68 318 0.0 0.0 0.00 0.00 0.00 100 1005.4
20220706033157 68 318 0.0 0.0 0.00 0.00 0.00 100 1005.4
20220706033116 68 318 0.0 0.0 0.00 0.00 0.00 100 1005.5
20220706033034 68 318 0.0 0.0 0.00 0.00 0.00 100 1005.5
20220706032910 68 318 0.0 0.0 0.00 0.00 0.00 100 1005.4
20220706032828 68 318 0.0 0.0 0.00 0.00 0.00 100 1005.4
20220706032745 68 318 0.0 0.0 0.00 0.00 0.00 100 1005.4
20220706032704 68 318 0.0 0.0 0.00 0.00 0.00 100 1005.5
20220706032622 68 318 0.0 0.0 0.00 0.00 0.00 100 1005.5
20220706032542 68 318 0.0 0.0 0.00 0.00 0.00 100 1005.4
20220706032419 68 318 0.0 0.0 0.00 0.00 0.00 100 1005.4
20220706032339 68 318 0.0 0.0 0.00 0.00 0.00 100 1005.4
20220706032257 68 318 0.0 0.0 0.00 0.00 0.00 100 1005.5
20220706032215 68 318 0.0 0.0 0.00 0.00 0.00 100 1005.4
20220706032137 67 318 0.0 0.0 0.00 0.00 0.00 100 1005.4
20220706032012 67 318 0.0 0.0 0.00 0.00 0.00 100 1005.5
20220706031852 67 318 0.0 0.0 0.00 0.00 0.00 100 1005.5
20220706031811 67 318 0.0 0.0 0.00 0.00 0.00 100 1005.5
20220706031648 67 318 0.0 0.0 0.00 0.00 0.00 100 1005.4
20220706031607 67 318 0.0 0.0 0.00 0.00 0.00 100 1005.4
20220706031525 67 318 0.0 0.0 0.00 0.00 0.00 100 1005.4
20220706031422 67 318 0.0 0.0 0.00 0.00 0.00 100 1005.5
20220706031258 67 318 0.0 0.0 0.00 0.00 0.00 100 1005.4
20220706031215 67 318 0.0 0.0 0.00 0.00 0.00 100 1005.4
20220706031113 67 318 0.0 0.0 0.00 0.00 0.00 100 1005.4
20220706031010 67 318 0.0 0.0 0.00 0.00 0.00 100 1005.4
20220706030948 67 318 0.0 0.0 0.00 0.00 0.00 100 1005.4
20220706030804 67 318 0.0 0.0 0.00 0.00 0.00 100 1005.4
20220706030742 67 318 0.0 0.0 0.00 0.00 0.00 100 1005.4
20220706030538 68 318 0.0 0.0 0.00 0.00 0.00 100 1005.4
20220706030331 68 318 0.0 0.0 0.00 0.00 0.00 100 1005.4
20220706030206 68 318 0.0 0.0 0.00 0.00 0.00 100 1005.4
20220706030001 68 318 0.0 0.0 0.00 0.00 0.00 100 1005.4
20220706025922 68 318 0.0 0.0 0.00 0.00 0.00 100 1005.4
20220706025819 68 318 0.0 0.0 0.00 0.00 0.00 100 1005.4
20220706025758 68 318 0.0 0.0 0.00 0.00 0.00 100 1005.4
20220706025719 68 318 0.0 0.0 0.00 0.00 0.00 100 1005.4
20220706025637 68 318 0.0 0.0 0.00 0.00 0.00 100 1005.4
20220706025454 68 318 0.0 0.0 0.00 0.00 0.00 100 1005.4
20220706025412 68 318 0.0 0.0 0.00 0.00 0.00 100 1005.4
20220706025331 68 318 0.0 0.0 0.00 0.00 0.00 100 1005.4
20220706025248 68 318 0.0 0.0 0.00 0.00 0.00 100 1005.4
20220706025207 68 318 0.0 0.0 0.00 0.00 0.00 100 1005.4
20220706025104 68 318 0.0 0.0 0.00 0.00 0.00 100 1005.4
20220706025001 68 318 0.0 0.0 0.00 0.00 0.00 100 1005.4
20220706024919 68 318 0.0 0.0 0.00 0.00 0.00 100 1005.4
20220706024838 68 318 0.0 0.0 0.00 0.00 0.00 100 1005.4
20220706024755 68 318 0.0 0.0 0.00 0.00 0.00 100 1005.3
20220706024631 68 318 0.0 0.0 0.00 0.00 0.00 100 1005.3
20220706024506 68 318 0.0 0.0 0.00 0.00 0.00 100 1005.3
20220706024404 68 318 0.0 0.0 0.00 0.00 0.00 100 1005.4
20220706024322 68 318 0.0 0.0 0.00 0.00 0.00 100 1005.4
20220706024218 68 318 0.0 0.0 0.00 0.00 0.00 100 1005.4
20220706024137 68 318 0.0 0.0 0.00 0.00 0.00 100 1005.4
20220706024054 68 318 0.0 0.0 0.00 0.00 0.00 100 1005.3
20220706024013 68 318 0.0 0.0 0.00 0.00 0.00 100 1005.3
20220706023910 68 318 0.0 0.0 0.00 0.00 0.00 100 1005.3
20220706023745 68 318 0.0 0.0 0.00 0.00 0.00 100 1005.2
20220706023625 68 318 0.0 0.0 0.00 0.00 0.00 100 1005.3
20220706023543 68 318 0.0 0.0 0.00 0.00 0.00 100 1005.2
20220706023503 68 318 0.0 0.0 0.00 0.00 0.00 100 1005.3
20220706023400 68 318 0.0 0.0 0.00 0.00 0.00 100 1005.2
20220706023318 68 318 0.0 0.0 0.00 0.00 0.00 100 1005.3
20220706023236 68 318 0.0 0.0 0.00 0.00 0.00 100 1005.3
20220706023154 68 318 0.0 0.0 0.00 0.00 0.00 100 1005.2
20220706023112 68 318 0.0 0.0 0.00 0.00 0.00 100 1005.2
20220706023031 68 318 0.0 0.0 0.00 0.00 0.00 100 1005.2
20220706023009 68 318 0.0 0.0 0.00 0.00 0.00 100 1005.3
20220706022845 68 318 0.0 0.0 0.00 0.00 0.00 100 1005.3
20220706022804 68 318 0.0 0.0 0.00 0.00 0.00 100 1005.2
20220706022640 68 318 0.0 0.0 0.00 0.00 0.00 100 1005.2
20220706022457 68 318 0.0 0.0 0.00 0.00 0.00 100 1005.3
20220706022416 68 318 0.0 0.0 0.00 0.00 0.00 100 1005.3
20220706022334 68 318 0.0 0.0 0.00 0.00 0.00 100 1005.3
20220706022210 68 318 0.0 0.0 0.00 0.00 0.00 100 1005.3
20220706022128 69 318 0.0 0.0 0.00 0.00 0.00 100 1005.3
20220706022004 69 318 0.0 0.0 0.00 0.00 0.00 100 1005.3
20220706021818 69 318 0.0 0.0 0.00 0.00 0.00 100 1005.3
20220706021758 69 318 0.0 0.0 0.00 0.00 0.00 100 1005.3
20220706021716 69 318 0.0 0.0 0.00 0.00 0.00 100 1005.3
20220706021633 69 318 0.0 0.0 0.00 0.00 0.00 100 1005.3
20220706021552 69 318 0.0 0.0 0.00 0.00 0.00 100 1005.4
20220706021510 69 318 0.0 0.0 0.00 0.00 0.00 100 1005.4
20220706021428 69 318 0.0 0.0 0.00 0.00 0.00 100 1005.4
20220706021346 69 318 0.0 0.0 0.00 0.00 0.00 100 1005.3
20220706021304 69 318 0.0 0.0 0.00 0.00 0.00 100 1005.4
20220706021222 69 318 0.0 0.0 0.00 0.00 0.00 100 1005.4
20220706021140 69 318 0.0 0.0 0.00 0.00 0.00 100 1005.3
20220706021016 69 318 0.0 0.0 0.00 0.00 0.00 100 1005.4
20220706020934 69 318 0.0 0.0 0.00 0.00 0.00 100 1005.4
20220706020851 69 318 0.0 0.0 0.00 0.00 0.00 100 1005.3
20220706020810 69 318 0.0 0.0 0.00 0.00 0.00 100 1005.4
20220706020728 69 318 0.0 0.0 0.00 0.00 0.00 100 1005.4
20220706020624 69 318 0.0 0.0 0.00 0.00 0.00 100 1005.3
20220706020501 69 318 0.0 0.0 0.00 0.00 0.00 100 1005.2
20220706020440 69 318 0.0 0.0 0.00 0.00 0.00 100 1005.2
20220706020418 69 318 0.0 0.0 0.00 0.00 0.00 100 1005.3
20220706020337 69 318 0.0 0.0 0.00 0.00 0.00 100 1005.3
20220706020316 69 318 0.0 0.0 0.00 0.00 0.00 100 1005.2
20220706020110 69 318 0.0 0.0 0.00 0.00 0.00 100 1005.1
20220706020028 69 318 0.0 0.0 0.00 0.00 0.00 100 1005.1
20220706015904 69 318 0.0 0.0 0.00 0.00 0.00 100 1005.1
20220706015800 69 318 0.0 0.0 0.00 0.00 0.00 100 1005.1
20220706015451 69 318 0.0 0.0 0.00 0.00 0.00 100 1005.0
20220706015348 69 318 0.0 0.0 0.00 0.00 0.00 100 1005.0
20220706015307 69 318 0.0 0.0 0.00 0.00 0.00 100 1005.0
20220706015225 69 318 0.0 0.0 0.00 0.00 0.00 100 1005.0
20220706015144 69 318 0.0 0.0 0.00 0.00 0.00 100 1005.0
20220706015101 69 318 0.0 0.0 0.00 0.00 0.00 100 1005.0
20220706015019 69 318 0.0 0.0 0.00 0.00 0.00 100 1005.0
20220706014916 69 318 0.0 0.0 0.00 0.00 0.00 100 1005.0
20220706014754 69 318 0.0 0.0 0.00 0.00 0.00 100 1005.0
20220706014712 69 318 0.0 0.0 0.00 0.00 0.00 100 1005.0
20220706014551 69 318 0.0 0.0 0.00 0.00 0.00 100 1005.0
20220706014428 69 318 0.0 0.0 0.00 0.00 0.00 100 1005.0
20220706014348 69 318 0.0 0.0 0.00 0.00 0.00 100 1005.0
20220706014307 69 318 0.0 0.0 0.00 0.00 0.00 100 1005.0
20220706014145 69 318 0.0 0.0 0.00 0.00 0.00 100 1005.0
20220706014104 69 318 0.0 0.0 0.00 0.00 0.00 100 1005.0
20220706014021 69 318 0.0 0.0 0.00 0.00 0.00 100 1005.0
20220706013921 69 318 0.0 0.0 0.00 0.00 0.00 100 1005.0
20220706013900 69 318 0.0 0.0 0.00 0.00 0.00 100 1004.9
20220706013839 69 318 0.0 0.0 0.00 0.00 0.00 100 1004.9
20220706013736 69 318 0.0 0.0 0.00 0.00 0.00 100 1005.0
20220706013655 69 318 0.0 0.0 0.00 0.00 0.00 100 1005.0
20220706013612 69 318 0.0 0.0 0.00 0.00 0.00 100 1005.0
20220706013552 70 318 0.0 0.0 0.00 0.00 0.00 100 1005.0
20220706013510 70 318 0.0 0.0 0.00 0.00 0.00 100 1005.0
20220706013428 70 318 0.0 0.0 0.00 0.00 0.00 100 1005.0
20220706013345 70 318 0.0 0.0 0.00 0.00 0.00 100 1005.0
20220706013242 70 318 0.0 0.0 0.00 0.00 0.00 100 1005.0
20220706013036 70 318 0.0 0.0 0.00 0.00 0.00 100 1004.9
20220706013016 70 318 0.0 0.0 0.00 0.00 0.00 100 1005.0
20220706012954 70 318 0.0 0.0 0.00 0.00 0.00 100 1005.0
20220706012913 70 318 0.0 0.0 0.00 0.00 0.00 100 1005.1
20220706012831 70 318 0.0 0.0 0.00 0.00 0.00 100 1005.1
20220706012707 70 318 0.0 0.0 0.00 0.00 0.00 100 1005.0
20220706012604 70 318 0.0 0.0 0.00 0.00 0.00 100 1005.0
20220706012522 70 318 0.0 0.0 0.00 0.00 0.00 100 1005.0
20220706012316 70 318 0.0 0.0 0.00 0.00 0.00 100 1005.0
20220706012233 70 318 0.0 0.0 0.00 0.00 0.00 100 1005.0
20220706012111 70 318 0.0 0.0 0.00 0.00 0.00 100 1005.0
20220706011949 70 318 0.0 0.0 0.00 0.00 0.00 100 1005.0
20220706011907 70 318 0.0 0.0 0.00 0.00 0.00 100 1005.0
20220706011825 71 318 0.0 0.0 0.00 0.00 0.00 100 1005.0
20220706011619 71 318 0.0 0.0 0.00 0.00 0.00 100 1005.1
20220706011434 71 318 0.0 0.0 0.00 0.00 0.00 100 1005.1
20220706011352 71 318 0.0 0.0 0.00 0.00 0.00 100 1005.1
20220706011310 71 318 0.0 0.0 0.00 0.00 0.00 100 1005.1
20220706011207 71 318 0.0 0.0 0.00 0.00 0.00 100 1005.1
20220706011001 71 318 0.0 0.0 0.00 0.00 0.00 100 1005.1
20220706010939 71 318 0.0 0.0 0.00 0.00 0.00 100 1005.1
20220706010858 71 318 0.0 0.0 0.00 0.00 0.00 100 1005.1
20220706010816 71 318 0.0 0.0 0.00 0.00 0.00 100 1005.1
20220706010755 71 318 0.0 0.0 0.00 0.00 0.00 100 1005.1
20220706010713 71 318 0.0 0.0 0.00 0.00 0.00 100 1005.1
20220706010548 71 318 0.0 0.0 0.00 0.00 0.00 100 1005.1
20220706010507 71 318 0.0 0.0 0.00 0.00 0.00 100 1005.1
20220706010425 71 318 0.0 0.0 0.00 0.00 0.00 100 1005.1
20220706010404 71 318 0.0 0.0 0.00 0.00 0.00 100 1005.0
20220706010218 71 318 0.0 0.0 0.00 0.00 0.00 100 1005.1
20220706010055 71 318 0.0 0.0 0.00 0.00 0.00 100 1005.0
20220706010013 71 318 0.0 0.0 0.00 0.00 0.00 100 1005.1
20220706005930 71 318 0.0 0.0 0.00 0.00 0.00 100 1005.1
20220706005849 71 318 0.0 0.0 0.00 0.00 0.00 100 1005.2
20220706005807 71 318 0.0 0.0 0.00 0.00 0.00 100 1005.1
20220706005726 71 318 0.0 0.0 0.00 0.00 0.00 100 1005.1
20220706005643 71 318 0.0 0.0 0.00 0.00 0.00 100 1005.1
20220706005601 71 318 0.0 0.0 0.00 0.00 0.00 100 1005.1
20220706005437 71 318 0.0 0.0 0.00 0.00 0.00 100 1005.1
20220706005355 70 318 0.0 0.0 0.00 0.00 0.00 100 1005.1
20220706005312 70 318 0.0 0.0 0.00 0.00 0.00 100 1005.1
20220706005109 70 318 0.0 0.0 0.00 0.00 0.00 100 1005.1
20220706004946 70 318 0.0 0.0 0.00 0.00 0.00 100 1005.1
20220706004905 70 318 0.0 0.0 0.00 0.00 0.00 100 1005.0
20220706004822 71 318 0.0 0.0 0.00 0.00 0.00 100 1005.0
20220706004637 71 318 0.0 0.0 0.00 0.00 0.00 100 1005.1
20220706004616 71 318 0.0 0.0 0.00 0.00 0.00 100 1005.0
20220706004535 71 318 0.0 0.0 0.00 0.00 0.00 100 1005.0
20220706004451 71 318 0.0 0.0 0.00 0.00 0.00 100 1005.0
20220706004327 71 318 0.0 0.0 0.00 0.00 0.00 100 1005.0
20220706004246 71 318 0.0 0.0 0.00 0.00 0.00 100 1005.1
20220706004204 71 318 0.0 0.0 0.00 0.00 0.00 100 1005.1
20220706004121 71 318 0.0 0.0 0.00 0.00 0.00 100 1005.1
20220706004100 71 318 0.0 0.0 0.00 0.00 0.00 100 1005.0
20220706004039 71 318 0.0 0.0 0.00 0.00 0.00 100 1005.0
20220706003916 71 318 0.0 0.0 0.00 0.00 0.00 100 1005.0
20220706003854 71 318 0.0 0.0 0.00 0.00 0.00 100 1005.0
20220706003713 71 318 0.0 0.0 0.00 0.00 0.00 100 1005.1
20220706003651 71 318 0.0 0.0 0.00 0.00 0.00 100 1005.1
20220706003610 71 318 0.0 0.0 0.00 0.00 0.00 100 1005.1
20220706003506 71 318 0.0 0.0 0.00 0.00 0.00 100 1005.1
20220706003426 71 318 0.0 0.0 0.00 0.00 0.00 100 1005.1
20220706003301 71 318 0.0 0.0 0.00 0.00 0.00 100 1005.0
20220706003221 71 318 0.0 0.0 0.00 0.00 0.00 100 1005.0
20220706003118 71 318 0.0 0.0 0.00 0.00 0.00 100 1005.1
20220706003057 71 318 0.0 0.0 0.00 0.00 0.00 100 1005.1
20220706003018 70 318 0.0 0.0 0.00 0.00 0.00 100 1005.1
20220706002937 70 318 0.0 0.0 0.00 0.00 0.00 100 1005.1
20220706002855 70 318 0.0 0.0 0.00 0.00 0.00 100 1005.1
20220706002813 70 318 0.0 0.0 0.00 0.00 0.00 100 1005.1
20220706002730 70 318 0.0 0.0 0.00 0.00 0.00 100 1005.1
20220706002649 70 318 0.0 0.0 0.00 0.00 0.00 100 1005.1
20220706002606 70 318 0.0 0.0 0.00 0.00 0.00 100 1005.1
20220706002525 70 318 0.0 0.0 0.00 0.00 0.00 100 1005.1
20220706002422 70 318 0.0 0.0 0.00 0.00 0.00 100 1005.1
20220706002401 70 318 0.0 0.0 0.00 0.00 0.00 100 1005.2
20220706002319 70 318 0.0 0.0 0.00 0.00 0.00 100 1005.1
20220706002236 70 318 0.0 0.0 0.00 0.00 0.00 100 1005.1
20220706002155 70 318 0.0 0.0 0.00 0.00 0.00 100 1005.1
20220706002030 70 318 0.0 0.0 0.00 0.00 0.00 100 1005.2
20220706001907 70 318 0.0 0.0 0.00 0.00 0.00 100 1005.2
20220706001824 70 318 0.0 0.0 0.00 0.00 0.00 100 1005.2
20220706001701 70 318 0.0 0.0 0.00 0.00 0.00 100 1005.2
20220706001539 70 318 0.0 0.0 0.00 0.00 0.00 100 1005.2
20220706001415 69 318 0.0 0.0 0.00 0.00 0.00 100 1005.2
20220706001334 69 318 0.0 0.0 0.00 0.00 0.00 100 1005.2
20220706001210 69 318 0.0 0.0 0.00 0.00 0.00 100 1005.2
20220706001046 69 318 0.0 0.0 0.00 0.00 0.00 100 1005.3
20220706001004 69 318 0.0 0.0 0.00 0.00 0.00 100 1005.2
20220706000922 69 318 0.0 0.0 0.00 0.00 0.00 100 1005.2
20220706000840 69 318 0.0 0.0 0.00 0.00 0.00 100 1005.3
20220706000716 69 318 0.0 0.0 0.00 0.00 0.00 100 1005.3
20220706000654 69 318 0.0 0.0 0.00 0.00 0.00 100 1005.3
20220706000531 69 318 0.0 0.0 0.00 0.00 0.00 100 1005.3
20220706000326 69 318 0.0 0.0 0.00 0.00 0.00 100 1005.3
20220706000201 69 318 0.0 0.0 0.00 0.00 0.00 100 1005.3
20220706000119 69 318 0.0 0.0 0.00 0.00 0.00 100 1005.4
20220706000037 69 318 0.0 0.0 0.00 0.00 0.00 100 1005.4
20220705235933 69 318 0.0 0.0 0.00 0.00 0.00 100 1005.4
20220705235809 69 318 0.0 0.0 0.00 0.00 0.00 100 1005.4
20220705235727 69 318 0.0 0.0 0.00 0.00 0.00 100 1005.4
20220705235646 69 318 0.0 0.0 0.00 0.00 0.00 100 1005.4
20220705235543 69 318 0.0 0.0 0.00 0.00 0.00 100 1005.4
20220705235421 69 318 0.0 0.0 0.00 0.00 0.00 100 1005.4
20220705235340 69 318 0.0 0.0 0.00 0.00 0.00 100 1005.4
20220705235257 69 318 0.0 0.0 0.00 0.00 0.00 100 1005.4
20220705235215 69 318 0.0 0.0 0.00 0.00 0.00 100 1005.4
20220705235051 69 318 0.0 0.0 0.00 0.00 0.00 100 1005.4
20220705234927 68 318 0.0 0.0 0.00 0.00 0.00 100 1005.4
20220705234906 68 318 0.0 0.0 0.00 0.00 0.00 100 1005.5
20220705234824 68 318 0.0 0.0 0.00 0.00 0.00 100 1005.5
20220705234701 68 318 0.0 0.0 0.00 0.00 0.00 100 1005.3
20220705234558 68 318 0.0 0.0 0.00 0.00 0.00 100 1005.4
20220705234516 68 318 0.0 0.0 0.00 0.00 0.00 100 1005.4
20220705234433 68 318 0.0 0.0 0.00 0.00 0.00 100 1005.4
20220705234351 68 318 0.0 0.0 0.00 0.00 0.00 100 1005.5
20220705234227 68 318 0.0 0.0 0.00 0.00 0.00 100 1005.5
20220705234146 68 318 0.0 0.0 0.00 0.00 0.00 100 1005.5
20220705234104 68 318 0.0 0.0 0.00 0.00 0.00 100 1005.5
20220705234022 68 318 0.0 0.0 0.00 0.00 0.00 100 1005.5
20220705234001 68 318 0.0 0.0 0.00 0.00 0.00 100 1005.4
20220705233919 68 318 0.0 0.0 0.00 0.00 0.00 100 1005.3
20220705233837 68 318 0.0 0.0 0.00 0.00 0.00 100 1005.3
20220705233632 68 318 0.0 0.0 0.00 0.00 0.00 100 1005.4
20220705233527 68 318 0.0 0.0 0.00 0.00 0.00 100 1005.4
20220705233404 68 318 0.0 0.0 0.00 0.00 0.00 100 1005.4
20220705233116 68 318 0.0 0.0 0.00 0.00 0.00 100 1005.3
20220705233012 68 318 0.0 0.0 0.00 0.00 0.00 100 1005.3
20220705232849 68 318 0.0 0.0 0.00 0.00 0.00 100 1005.3
20220705232642 67 318 0.0 0.0 0.00 0.00 0.00 100 1005.4
20220705232600 67 318 0.0 0.0 0.00 0.00 0.00 100 1005.4
20220705232519 67 318 0.0 0.0 0.00 0.00 0.00 100 1005.4
20220705232354 67 318 0.0 0.0 0.00 0.00 0.00 100 1005.4
20220705232230 67 318 0.0 0.0 0.00 0.00 0.00 100 1005.5
20220705232127 67 318 0.0 0.0 0.00 0.00 0.00 100 1005.5
20220705232106 67 318 0.0 0.0 0.00 0.00 0.00 100 1005.4
20220705232024 67 318 0.0 0.0 0.00 0.00 0.00 100 1005.4
20220705231922 67 318 0.0 0.0 0.00 0.00 0.00 100 1005.4
20220705231839 67 318 0.0 0.0 0.00 0.00 0.00 100 1005.4
20220705231737 67 318 0.0 0.0 0.00 0.00 0.00 100 1005.5
20220705231655 67 318 0.0 0.0 0.00 0.00 0.00 100 1005.4
20220705231612 67 318 0.0 0.0 0.00 0.00 0.00 100 1005.4
20220705231531 67 318 0.0 0.0 0.00 0.00 0.00 100 1005.4
20220705231449 67 318 0.0 0.0 0.00 0.00 0.00 100 1005.4
20220705231407 67 318 0.0 0.0 0.00 0.00 0.00 100 1005.4
20220705231304 67 318 0.0 0.0 0.00 0.00 0.00 100 1005.4
20220705231222 67 318 0.0 0.0 0.00 0.00 0.00 100 1005.4
20220705231139 67 318 0.0 0.0 0.00 0.00 0.00 100 1005.4
20220705231037 67 318 0.0 0.0 0.00 0.00 0.00 100 1005.4
20220705230955 67 318 0.0 0.0 0.00 0.00 0.00 100 1005.4
20220705230913 67 318 0.0 0.0 0.00 0.00 0.00 100 1005.4
20220705230749 67 318 0.0 0.0 0.00 0.00 0.00 100 1005.5
20220705230543 67 318 0.0 0.0 0.00 0.00 0.00 100 1005.4
20220705230502 67 318 0.0 0.0 0.00 0.00 0.00 100 1005.4
20220705230316 67 318 0.0 0.0 0.00 0.00 0.00 100 1005.4
20220705230235 67 318 0.0 0.0 0.00 0.00 0.00 100 1005.4
20220705230110 67 318 0.0 0.0 0.00 0.00 0.00 100 1005.4
20220705230028 67 318 0.0 0.0 0.00 0.00 0.00 100 1005.4
20220705230006 67 318 0.0 0.0 0.00 0.00 0.00 100 1005.5
20220705225925 67 318 0.0 0.0 0.00 0.00 0.00 100 1005.5
20220705225843 67 318 0.0 0.0 0.00 0.00 0.00 100 1005.5
20220705225744 67 318 0.0 0.0 0.00 0.00 0.00 100 1005.5
20220705225701 67 318 0.0 0.0 0.00 0.00 0.00 100 1005.5
20220705225455 67 318 0.0 0.0 0.00 0.00 0.00 100 1005.6
20220705225415 67 318 0.0 0.0 0.00 0.00 0.00 100 1005.5
20220705225333 67 318 0.0 0.0 0.00 0.00 0.00 100 1005.5
20220705225252 67 318 0.0 0.0 0.00 0.00 0.00 100 1005.6
20220705225130 67 318 0.0 0.0 0.00 0.00 0.00 100 1005.6
20220705225049 67 318 0.0 0.0 0.00 0.00 0.00 100 1005.6
20220705225009 67 318 0.0 0.0 0.00 0.00 0.00 100 1005.6
20220705224948 67 318 0.0 0.0 0.00 0.00 0.00 100 1005.6
20220705224845 67 318 0.0 0.0 0.00 0.00 0.00 100 1005.6
20220705224746 67 318 0.0 0.0 0.00 0.00 0.00 100 1005.6
20220705224704 67 318 0.0 0.0 0.00 0.00 0.00 100 1005.6
20220705224642 67 318 0.0 0.0 0.00 0.00 0.00 100 1005.6
20220705224522 67 318 0.0 0.0 0.00 0.00 0.00 100 1005.6
20220705224401 67 318 0.0 0.0 0.00 0.00 0.00 100 1005.7
20220705224236 67 318 0.0 0.0 0.00 0.00 0.00 100 1005.7
20220705224137 67 318 0.0 0.0 0.00 0.00 0.00 100 1005.7
20220705224115 67 318 0.0 0.0 0.00 0.00 0.00 100 1005.6
20220705223954 67 318 0.0 0.0 0.00 0.00 0.00 100 1005.6
20220705223912 67 318 0.0 0.0 0.00 0.00 0.00 100 1005.7
20220705223832 67 318 0.0 0.0 0.00 0.00 0.00 100 1005.7
20220705223751 67 318 0.0 0.0 0.00 0.00 0.00 100 1005.7
20220705223709 67 318 0.0 0.0 0.00 0.00 0.00 100 1005.6
20220705223528 67 318 0.0 0.0 0.00 0.00 0.00 100 1005.6
20220705223506 67 318 0.0 0.0 0.00 0.00 0.00 100 1005.7
20220705223425 67 318 0.0 0.0 0.00 0.00 0.00 100 1005.7
20220705223344 67 318 0.0 0.0 0.00 0.00 0.00 100 1005.6
20220705223300 67 318 0.0 0.0 0.00 0.00 0.00 100 1005.7
20220705223137 67 318 0.0 0.0 0.00 0.00 0.00 100 1005.7
20220705223013 67 318 0.0 0.0 0.00 0.00 0.00 100 1005.7
20220705222849 67 318 0.0 0.0 0.00 0.00 0.00 100 1005.7
20220705222725 67 318 0.0 0.0 0.00 0.00 0.00 100 1005.8
20220705222643 67 318 0.0 0.0 0.00 0.00 0.00 100 1005.8
20220705222600 67 318 0.0 0.0 0.00 0.00 0.00 100 1005.8
20220705222519 67 318 0.0 0.0 0.00 0.00 0.00 100 1005.8
20220705222438 67 318 0.0 0.0 0.00 0.00 0.00 100 1005.8
20220705222354 67 318 0.0 0.0 0.00 0.00 0.00 100 1005.8
20220705222312 67 318 0.0 0.0 0.00 0.00 0.00 100 1005.8
20220705222231 67 318 0.0 0.0 0.00 0.00 0.00 100 1005.8
20220705222148 67 318 0.0 0.0 0.00 0.00 0.00 100 1005.8
20220705222106 67 318 0.0 0.0 0.00 0.00 0.00 100 1005.9
20220705222045 67 318 0.0 0.0 0.00 0.00 0.00 100 1005.9
20220705222004 67 318 0.0 0.0 0.00 0.00 0.00 100 1005.9
20220705221942 67 318 0.0 0.0 0.00 0.00 0.00 100 1005.9
20220705221901 67 318 0.0 0.0 0.00 0.00 0.00 100 1005.9
20220705221819 67 318 0.0 0.0 0.00 0.00 0.00 100 1005.9
20220705221736 67 318 0.0 0.0 0.00 0.00 0.00 100 1005.9
20220705221654 67 318 0.0 0.0 0.00 0.00 0.00 100 1005.9
20220705221530 67 318 0.0 0.0 0.00 0.00 0.00 100 1005.9
20220705221449 67 318 0.0 0.0 0.00 0.00 0.00 100 1006.0
20220705221201 67 318 0.0 0.0 0.00 0.00 0.00 100 1005.9
20220705221058 67 318 0.0 0.0 0.00 0.00 0.00 100 1006.0
20220705220933 67 318 0.0 0.0 0.00 0.00 0.00 100 1005.8
20220705220830 67 318 0.0 0.0 0.00 0.00 0.00 100 1005.9
20220705220748 67 318 0.0 0.0 0.00 0.00 0.00 100 1006.0
20220705220708 67 318 0.0 0.0 0.00 0.00 0.00 100 1005.9
20220705220624 67 318 0.0 0.0 0.00 0.00 0.00 100 1005.9
20220705220543 67 318 0.0 0.0 0.00 0.00 0.00 100 1006.0
20220705220422 67 318 0.0 0.0 0.00 0.00 0.00 100 1006.0
20220705220340 67 318 0.0 0.0 0.00 0.00 0.00 100 1005.9
20220705220240 67 318 0.0 0.0 0.00 0.00 0.00 100 1006.0
20220705220218 67 318 0.0 0.0 0.00 0.00 0.00 100 1006.1
20220705220137 67 318 0.0 0.0 0.00 0.00 0.00 100 1006.1
20220705220057 67 318 0.0 0.0 0.00 0.00 0.00 100 1006.0
20220705220016 67 318 0.0 0.0 0.00 0.00 0.00 100 1006.1
20220705215855 67 318 0.0 0.0 0.00 0.00 0.00 100 1006.0
20220705215813 67 318 0.0 0.0 0.00 0.00 0.00 100 1006.1
20220705215607 67 318 0.0 0.0 0.00 0.00 0.00 100 1006.1
20220705215545 67 318 0.0 0.0 0.00 0.00 0.00 100 1006.1
20220705215504 67 318 0.0 0.0 0.00 0.00 0.00 100 1006.1
20220705215401 67 318 0.0 0.0 0.00 0.00 0.00 100 1006.1
20220705215301 67 318 0.0 0.0 0.00 0.00 0.00 100 1006.1
20220705215200 67 318 0.0 0.0 0.00 0.00 0.00 100 1006.1
20220705215100 67 318 0.0 0.0 0.00 0.00 0.00 100 1006.2
20220705214901 67 318 0.0 0.0 0.00 0.00 0.00 100 1006.1
20220705214701 67 318 0.0 0.0 0.00 0.00 0.00 100 1006.2
20220705214601 67 318 0.0 0.0 0.00 0.00 0.00 100 1006.2
20220705214501 67 318 0.0 0.0 0.00 0.00 0.00 100 1006.1
20220705214201 67 318 0.0 0.0 0.00 0.00 0.00 100 1006.1
20220705214101 67 318 0.0 0.0 0.00 0.00 0.00 100 1006.2
20220705214000 67 318 0.0 0.0 0.00 0.00 0.00 100 1006.2
20220705213901 67 318 0.0 0.0 0.00 0.00 0.00 100 1006.1
20220705213801 67 318 0.0 0.0 0.00 0.00 0.00 100 1006.1
20220705213700 67 318 0.0 0.0 0.00 0.00 0.00 100 1006.1
20220705213501 67 318 0.0 0.0 0.00 0.00 0.00 100 1006.1
20220705213400 67 318 0.0 0.0 0.00 0.00 0.00 100 1006.2
20220705213300 67 318 0.0 0.0 0.00 0.00 0.00 100 1006.1
20220705213201 67 318 0.0 0.0 0.00 0.00 0.00 100 1006.2
20220705213101 67 318 0.0 0.0 0.00 0.00 0.00 100 1006.1
20220705212937 67 318 0.0 0.0 0.00 0.00 0.00 100 1006.1
20220705212855 67 318 0.0 0.0 0.00 0.00 0.00 100 1006.1
20220705212648 67 318 0.0 0.0 0.00 0.00 0.00 100 1006.1
20220705212607 67 318 0.0 0.0 0.00 0.00 0.00 100 1006.1
20220705212524 67 318 0.0 0.0 0.00 0.00 0.00 100 1006.1
20220705212444 67 318 0.0 0.0 0.00 0.00 0.00 100 1006.1
20220705212401 67 318 0.0 0.0 0.00 0.00 0.00 100 1006.0
20220705212300 67 318 0.0 0.0 0.00 0.00 0.00 100 1006.0
20220705212200 67 318 0.0 0.0 0.00 0.00 0.00 100 1006.0
20220705212100 68 318 0.0 0.0 0.00 0.00 0.00 100 1006.0
20220705211900 68 318 0.0 0.0 0.00 0.00 0.00 100 1006.0
20220705211801 68 318 0.0 0.0 0.00 0.00 0.00 100 1006.0
20220705211700 68 318 0.0 0.0 0.00 0.00 0.00 100 1006.0
20220705211501 68 318 0.0 0.0 0.00 0.00 0.00 100 1006.1
20220705211400 68 318 0.0 0.0 0.00 0.00 0.00 100 1006.1
20220705211300 68 318 0.0 0.0 0.00 0.00 0.00 100 1006.0
20220705211200 68 318 0.0 0.0 0.00 0.00 0.00 100 1006.2
20220705211100 68 318 0.0 0.0 0.00 0.00 0.00 100 1006.1
20220705211000 68 318 0.0 0.0 0.00 0.00 0.00 100 1006.1
20220705210902 68 318 0.0 0.0 0.00 0.00 0.00 100 1006.1
20220705210801 68 318 0.0 0.0 0.00 0.00 0.00 100 1006.2
20220705210600 68 318 0.0 0.0 0.00 0.00 0.00 100 1006.1
20220705210501 68 318 0.0 0.0 0.00 0.00 0.00 100 1006.1
20220705210401 68 318 0.0 0.0 0.00 0.00 0.00 100 1006.1
20220705210300 68 318 0.0 0.0 0.00 0.00 0.00 100 1006.2
20220705210101 68 318 0.0 0.0 0.00 0.00 0.00 100 1006.2
20220705205937 68 318 0.0 0.0 0.00 0.00 0.00 100 1006.1
20220705205854 68 318 0.0 0.0 0.00 0.00 0.00 100 1006.1
20220705205813 68 318 0.0 0.0 0.00 0.00 0.00 100 1006.1
20220705205649 68 318 0.0 0.0 0.00 0.00 0.00 100 1006.1
20220705205607 68 318 0.0 0.0 0.00 0.00 0.00 100 1006.1
20220705205001 68 318 0.0 0.0 0.00 0.00 0.00 100 1006.2
20220705204801 68 318 0.0 0.0 0.00 0.00 0.00 100 1006.2
20220705204701 68 318 0.0 0.0 0.00 0.00 0.00 100 1006.2
20220705204500 68 318 0.0 0.0 0.00 0.00 0.00 100 1006.2
20220705204400 68 318 0.0 0.0 0.00 0.00 0.00 100 1006.2
20220705204300 68 318 0.0 0.0 0.00 0.00 0.00 100 1006.2
20220705204200 68 318 0.0 0.0 0.00 0.00 0.00 100 1006.3
20220705204101 68 318 0.0 0.0 0.00 0.00 0.00 100 1006.3
20220705203901 68 318 0.0 0.0 0.00 0.00 0.00 100 1006.3
20220705203800 68 318 0.0 0.0 0.00 0.00 0.00 100 1006.3
20220705203701 68 318 0.0 0.0 0.00 0.00 0.00 100 1006.3
20220705203601 68 318 0.0 0.0 0.00 0.00 0.00 100 1006.3
20220705203501 68 318 0.0 0.0 0.00 0.00 0.00 100 1006.3
20220705203401 68 318 0.0 0.0 0.00 0.00 0.00 100 1006.3
20220705203301 68 318 0.0 0.0 0.00 0.00 0.00 100 1006.4
20220705203201 68 318 0.0 0.0 0.00 0.00 0.00 100 1006.3
20220705203101 68 318 0.0 0.0 0.00 0.00 0.00 100 1006.2
20220705203001 68 318 0.0 0.0 0.00 0.00 0.00 100 1006.3
20220705202901 68 318 0.0 0.0 0.00 0.00 0.00 100 1006.3
20220705202802 68 318 0.0 0.0 0.00 0.00 0.00 100 1006.2
20220705202700 68 318 0.0 0.0 0.00 0.00 0.00 100 1006.3
20220705202601 68 318 0.0 0.0 0.00 0.00 0.00 100 1006.4
20220705202501 69 318 0.0 0.0 0.00 0.00 0.00 100 1006.4
20220705202301 69 318 0.0 0.0 0.00 0.00 0.00 100 1006.4
20220705202201 69 318 0.0 0.0 0.00 0.00 0.00 100 1006.4
20220705202101 69 318 0.0 0.0 0.00 0.00 0.00 100 1006.4
20220705202001 69 318 0.0 0.0 0.00 0.00 0.00 100 1006.4
20220705201900 69 318 0.0 0.0 0.00 0.00 0.00 100 1006.4
20220705201801 69 318 0.0 0.0 0.00 0.00 0.00 100 1006.4
20220705201721 69 318 0.0 0.0 0.00 0.00 0.00 100 1006.4
20220705201601 69 318 0.0 0.0 0.00 0.00 0.00 100 1006.4
20220705201501 69 318 0.0 0.0 0.00 0.00 0.00 100 1006.4
20220705201400 69 318 0.0 0.0 0.00 0.00 0.00 100 1006.3
20220705201301 69 318 0.0 0.0 0.00 0.00 0.00 100 1006.3
20220705201200 69 318 0.0 0.0 0.00 0.00 0.00 100 1006.3
20220705201101 69 318 0.0 0.0 0.00 0.00 0.00 100 1006.3
20220705201001 69 318 0.0 0.0 0.00 0.00 0.00 100 1006.3
20220705200901 69 318 0.0 0.0 0.00 0.00 0.00 100 1006.3
20220705200800 69 318 0.0 0.0 0.00 0.00 0.00 100 1006.3
20220705200600 69 318 0.0 0.0 0.00 0.00 0.00 100 1006.3
20220705200521 69 318 0.0 0.0 0.00 0.00 0.00 100 1006.3
20220705200400 69 318 0.0 0.0 0.00 0.00 0.00 100 1006.2
20220705200318 69 318 0.0 0.0 0.00 0.00 0.00 100 1006.1
20220705200134 69 318 0.0 0.0 0.00 0.00 0.00 100 1006.1
20220705200054 69 318 0.0 0.0 0.00 0.00 0.00 100 1006.1
20220705200012 69 318 0.0 0.0 0.00 0.00 0.00 100 1006.1
20220705195831 69 318 0.0 0.0 0.00 0.00 0.00 100 1006.1
20220705195749 69 318 0.0 0.0 0.00 0.00 0.00 100 1006.2
20220705195625 69 318 0.0 0.0 0.00 0.00 0.00 100 1006.1
20220705195543 69 318 0.0 0.0 0.00 0.00 0.00 100 1006.2
20220705195443 69 318 0.0 0.0 0.00 0.00 0.00 100 1006.2
20220705195201 69 318 0.0 0.0 0.00 0.00 0.00 100 1006.2
20220705195001 69 318 0.0 0.0 0.00 0.00 0.00 100 1006.3
20220705194901 69 318 0.0 0.0 0.00 0.00 0.00 100 1006.3
20220705194801 69 318 0.0 0.0 0.00 0.00 0.00 100 1006.2
20220705194601 69 318 0.0 0.0 0.00 0.00 0.00 100 1006.3
20220705194501 70 318 0.0 0.0 0.00 0.00 0.00 100 1006.3
20220705194400 70 318 0.0 0.0 0.00 0.00 0.00 100 1006.4
20220705194301 70 318 0.0 0.0 0.00 0.00 0.00 100 1006.3
20220705194202 70 318 0.0 0.0 0.00 0.00 0.00 100 1006.4
20220705194100 70 318 0.0 0.0 0.00 0.00 0.00 100 1006.3
20220705194001 70 318 0.0 0.0 0.00 0.00 0.00 100 1006.4
20220705193901 70 318 0.0 0.0 0.00 0.00 0.00 100 1006.3
20220705193801 70 318 0.0 0.0 0.00 0.00 0.00 100 1006.4
20220705193601 70 318 0.0 0.0 0.00 0.00 0.00 100 1006.4
20220705193501 70 318 0.0 0.0 0.00 0.00 0.00 100 1006.4
20220705193402 70 318 0.0 0.0 0.00 0.00 0.00 100 1006.4
20220705193301 70 318 0.0 0.0 0.00 0.00 0.00 100 1006.4
20220705193202 70 318 0.0 0.0 0.00 0.00 0.00 100 1006.3
20220705193001 70 318 0.0 0.0 0.00 0.00 0.00 100 1006.4
20220705192800 70 318 0.0 0.0 0.00 0.00 0.00 100 1006.3
20220705192702 70 318 0.0 0.0 0.00 0.00 0.00 100 1006.4
20220705192623 71 318 0.0 0.0 0.00 0.00 0.00 100 1006.3
20220705192502 71 318 0.0 0.0 0.00 0.00 0.00 100 1006.4
20220705192300 71 318 0.0 0.0 0.00 0.00 0.00 100 1006.4
20220705192101 71 318 0.0 0.0 0.00 0.00 0.00 100 1006.3
20220705192001 71 318 0.0 0.0 0.00 0.00 0.00 100 1006.3
20220705191900 71 318 0.0 0.0 0.00 0.00 0.00 100 1006.3
20220705191801 71 318 0.0 0.0 0.00 0.00 0.00 100 1006.3
20220705191701 71 318 0.0 0.0 0.00 0.00 0.00 100 1006.3
20220705191401 72 318 0.0 0.0 0.00 0.00 0.00 100 1006.3
20220705191301 72 318 0.0 0.0 0.00 0.00 0.00 100 1006.3
20220705191201 72 318 0.0 0.0 0.00 0.00 0.00 100 1006.2
20220705191101 72 318 0.0 0.0 0.00 0.00 0.00 100 1006.3
20220705190801 72 318 0.0 0.0 0.00 0.00 0.00 100 1006.2
20220705190601 73 318 0.0 0.0 0.00 0.00 0.00 100 1006.2
20220705190500 73 318 0.0 0.0 0.00 0.00 0.00 100 1006.2
20220705190401 73 318 0.0 0.0 0.00 0.00 0.00 100 1006.2
20220705190301 73 318 0.0 0.0 0.00 0.00 0.00 100 1006.1
20220705190101 73 318 0.0 0.0 0.00 0.00 0.00 100 1006.2
20220705190040 73 318 0.0 0.0 0.00 0.00 0.00 100 1006.2
20220705185957 73 318 0.0 0.0 0.00 0.00 0.00 100 1006.2
20220705185915 73 318 0.0 0.0 0.00 0.00 0.00 100 1006.2
20220705185855 73 318 0.0 0.0 0.00 0.00 0.00 100 1006.2
20220705185813 73 318 0.0 0.0 0.00 0.00 0.00 100 1006.2
20220705185628 73 318 0.0 0.0 0.00 0.00 0.00 100 1006.2
20220705185546 73 318 0.0 0.0 0.00 0.00 0.00 100 1006.3
20220705185503 73 318 0.0 0.0 0.00 0.00 0.00 100 1006.2
20220705185442 74 318 0.0 0.0 0.00 0.00 0.00 100 1006.2
20220705185401 74 318 0.0 0.0 0.00 0.00 0.00 100 1006.2
20220705185200 74 318 0.0 0.0 0.00 0.00 0.00 100 1006.2
20220705185000 74 318 0.0 0.0 0.00 0.00 0.00 100 1006.2
20220705184900 74 318 0.0 0.0 0.00 0.00 0.00 100 1006.2
20220705184800 74 318 0.0 0.0 0.00 0.00 0.00 100 1006.2
20220705184701 74 318 0.0 0.0 0.00 0.00 0.00 100 1006.2
20220705184621 74 318 0.0 0.0 0.00 0.00 0.00 100 1006.2
20220705184600 75 318 0.0 0.0 0.00 0.00 0.00 100 1006.2
20220705184501 75 318 0.0 0.0 0.00 0.00 0.00 100 1006.2
20220705184400 75 318 0.0 0.0 0.00 0.00 0.00 100 1006.3
20220705184201 75 318 0.0 0.0 0.00 0.00 0.00 100 1006.3
20220705184101 75 318 0.0 0.0 0.00 0.00 0.00 100 1006.2
20220705184001 75 318 0.0 0.0 0.00 0.00 0.00 100 1006.3
20220705183801 75 318 0.0 0.0 0.00 0.00 0.00 100 1006.3
20220705183702 76 318 0.0 0.0 0.00 0.00 0.00 100 1006.2
20220705183501 76 318 0.0 0.0 0.00 0.00 0.00 100 1006.1
20220705183400 76 318 0.0 0.0 0.00 0.00 0.00 100 1006.1
20220705183301 76 318 0.0 0.0 0.00 0.00 0.00 100 1006.1
20220705183100 76 318 0.0 0.0 0.00 0.00 0.00 100 1006.1
20220705183001 76 318 0.0 0.0 0.00 0.00 0.00 100 1006.1
20220705182801 77 318 0.0 0.0 0.00 0.00 0.00 100 1006.1
20220705182701 77 318 0.0 0.0 0.00 0.00 0.00 100 1006.1
20220705182501 77 318 0.0 0.0 0.00 0.00 0.00 100 1006.1
20220705182300 77 318 0.0 0.0 0.00 0.00 0.00 100 1006.1
20220705182201 77 318 0.0 0.0 0.00 0.00 0.00 100 1006.1
20220705182101 77 318 0.0 0.0 0.00 0.00 0.00 100 1006.1
20220705182001 78 318 0.0 0.0 0.00 0.00 0.00 100 1006.1
20220705181901 78 318 0.0 0.0 0.00 0.00 0.00 100 1006.1
20220705181703 78 318 0.0 0.0 0.00 0.00 0.00 100 1006.1
20220705181600 78 318 0.0 0.0 0.00 0.00 0.00 100 1006.0
20220705181501 78 318 0.0 0.0 0.00 0.00 0.00 100 1006.0
20220705181401 78 318 0.0 0.0 0.00 0.00 0.00 100 1006.0
20220705181301 78 318 0.0 0.0 0.00 0.00 0.00 100 1005.9
20220705181201 78 318 0.0 0.0 0.00 0.00 0.00 100 1006.0
20220705181101 78 318 0.0 0.0 0.00 0.00 0.00 100 1006.0
20220705181001 78 318 0.0 0.0 0.00 0.00 0.00 100 1006.0
20220705180901 79 318 0.0 0.0 0.00 0.00 0.00 100 1006.0
20220705180800 79 318 0.0 0.0 0.00 0.00 0.00 100 1005.9
20220705180701 79 318 0.0 0.0 0.00 0.00 0.00 100 1006.0
20220705180601 79 318 0.0 0.0 0.00 0.00 0.00 100 1005.9
20220705180501 79 318 0.0 0.0 0.00 0.00 0.00 100 1005.9
20220705180401 79 318 0.0 0.0 0.00 0.00 0.00 100 1006.0
20220705180321 79 318 0.0 0.0 0.00 0.00 0.00 100 1006.0
20220705175813 79 318 0.0 0.0 0.00 0.00 0.00 100 1005.9
20220705175732 79 318 0.0 0.0 0.00 0.00 0.00 100 1005.9
20220705175503 79 318 0.0 0.0 0.00 0.00 0.00 100 1005.9
20220705175401 79 318 0.0 0.0 0.00 0.00 0.00 100 1005.8
20220705175300 79 318 0.0 0.0 0.00 0.00 0.00 100 1005.9
20220705175201 79 318 0.0 0.0 0.00 0.00 0.00 100 1005.8
20220705175100 79 318 0.0 0.0 0.00 0.00 0.00 100 1005.8
20220705175001 79 318 0.0 0.0 0.00 0.00 0.00 100 1005.8
20220705174901 80 318 0.0 0.0 0.00 0.00 0.00 100 1005.8
20220705174600 80 318 0.0 0.0 0.00 0.00 0.00 100 1005.7
20220705174500 80 318 0.0 0.0 0.00 0.00 0.00 100 1005.7
20220705174401 80 318 0.0 0.0 0.00 0.00 0.00 100 1005.7
20220705174302 80 318 0.0 0.0 0.00 0.00 0.00 100 1005.8
20220705174201 80 318 0.0 0.0 0.00 0.00 0.00 100 1005.8
20220705174100 80 318 0.0 0.0 0.00 0.00 0.00 100 1005.8
20220705173900 80 318 0.0 0.0 0.00 0.00 0.00 1 1005.7
20220705173801 80 318 0.0 0.0 0.00 0.00 0.00 2 1005.8
20220705173701 80 318 0.0 0.0 0.00 0.00 0.00 2 1005.7
20220705173600 80 318 0.0 0.0 0.00 0.00 0.00 3 1005.7
20220705173501 80 318 0.0 0.0 0.00 0.00 0.00 3 1005.7
20220705173400 80 318 0.0 0.0 0.00 0.00 0.00 4 1005.7
20220705173301 80 318 0.0 0.0 0.00 0.00 0.00 5 1005.7
20220705173001 80 318 0.0 0.0 0.00 0.00 0.00 7 1005.7
20220705172901 80 318 0.0 0.0 0.00 0.00 0.00 7 1005.7
20220705172700 80 318 0.0 0.0 0.00 0.00 0.00 9 1005.6
20220705172500 80 318 0.0 0.0 0.00 0.00 0.00 10 1005.7
20220705172401 80 318 0.0 0.0 0.00 0.00 0.00 10 1005.7
20220705172300 81 318 0.0 0.0 0.00 0.00 0.00 11 1005.7
20220705172202 81 318 0.0 0.0 0.00 0.00 0.00 12 1005.6
20220705172101 81 318 0.0 0.0 0.00 0.00 0.00 12 1005.6
20220705172001 81 318 0.0 0.0 0.00 0.00 0.00 13 1005.5
20220705171901 81 318 0.0 0.0 0.00 0.00 0.00 13 1005.6
20220705171801 81 318 0.0 0.0 0.00 0.00 0.00 14 1005.5
20220705171601 81 318 0.0 0.0 0.00 0.00 0.00 15 1005.4
20220705171501 81 318 0.0 0.0 0.00 0.00 0.00 16 1005.4
20220705171304 81 318 0.0 0.0 0.00 0.00 0.00 17 1005.5
20220705171200 81 318 0.0 0.0 0.00 0.00 0.00 18 1005.5
20220705171001 81 318 0.0 0.0 0.00 0.00 0.00 19 1005.5
20220705170900 81 318 0.0 0.0 0.00 0.00 0.00 20 1005.5
20220705170801 81 318 0.0 0.0 0.00 0.00 0.00 21 1005.5
20220705170700 81 318 0.0 0.0 0.00 0.00 0.00 22 1005.5
20220705170500 82 318 0.0 0.0 0.00 0.00 0.00 23 1005.5
20220705170401 82 318 0.0 0.0 0.00 0.00 0.00 23 1005.5
20220705170300 82 318 0.0 0.0 0.00 0.00 0.00 25 1005.5
20220705170200 82 318 0.0 0.0 0.00 0.00 0.00 25 1005.5
20220705170100 82 318 0.0 0.0 0.00 0.00 0.00 26 1005.5
20220705170000 82 318 0.0 0.0 0.00 0.00 0.00 26 1005.5
20220705165901 82 318 0.0 0.0 0.00 0.00 0.00 27 1005.5
20220705165821 82 318 0.0 0.0 0.00 0.00 0.00 27 1005.5
20220705165800 82 318 0.0 0.0 0.00 0.00 0.00 28 1005.5
20220705165700 82 318 0.0 0.0 0.00 0.00 0.00 28 1005.5
20220705165602 82 318 0.0 0.0 0.00 0.00 0.00 28 1005.5
20220705165419 82 318 0.0 0.0 0.00 0.00 0.00 29 1005.5
20220705165358 82 318 0.0 0.0 0.00 0.00 0.00 29 1005.5
20220705165327 82 318 0.0 0.0 0.00 0.00 0.00 29 1005.5
20220705165235 82 318 0.0 0.0 0.00 0.00 0.00 30 1005.5
20220705165132 82 318 0.0 0.0 0.00 0.00 0.00 30 1005.5
20220705165010 82 318 0.0 0.0 0.00 0.00 0.00 30 1005.5
20220705164928 82 318 0.0 0.0 0.00 0.00 0.00 31 1005.5
20220705164723 82 318 0.0 0.0 0.00 0.00 0.00 32 1005.4
20220705164641 82 318 0.0 0.0 0.00 0.00 0.00 32 1005.4
20220705164559 82 318 0.0 0.0 0.00 0.00 0.00 32 1005.4
20220705164517 82 318 0.0 0.0 0.00 0.00 0.00 32 1005.4
20220705164352 82 318 0.0 0.0 0.00 0.00 0.00 33 1005.3
20220705164310 82 318 0.0 0.0 0.00 0.00 0.00 33 1005.4
20220705164229 83 318 0.0 0.0 0.00 0.00 0.00 34 1005.4
20220705164147 83 318 0.0 0.0 0.00 0.00 0.00 34 1005.4
20220705164022 83 318 0.0 0.0 0.00 0.00 0.00 34 1005.3
20220705163940 83 318 0.0 0.0 0.00 0.00 0.00 35 1005.4
20220705163919 83 318 0.0 0.0 0.00 0.00 0.00 35 1005.3
20220705163838 83 318 0.0 0.0 0.00 0.00 0.00 35 1005.3
20220705163756 83 318 0.0 0.0 0.00 0.00 0.00 35 1005.3
20220705163713 83 318 0.0 0.0 0.00 0.00 0.00 35 1005.3
20220705163610 83 318 0.0 0.0 0.00 0.00 0.00 36 1005.3
20220705163529 83 318 0.0 0.0 0.00 0.00 0.00 36 1005.3
20220705163302 83 318 0.0 0.0 0.00 0.00 0.00 36 1005.3
20220705163220 83 318 0.0 0.0 0.00 0.00 0.00 36 1005.2
20220705163137 83 318 0.0 0.0 0.00 0.00 0.00 36 1005.2
20220705163014 83 314 0.0 0.0 0.00 0.00 0.00 37 1005.2
20220705162849 83 313 0.0 0.0 0.00 0.00 0.00 37 1005.2
20220705162808 84 313 0.0 0.0 0.00 0.00 0.00 37 1005.2
20220705162644 84 313 0.0 0.0 0.00 0.00 0.00 37 1005.2
20220705162520 84 313 0.0 0.0 0.00 0.00 0.00 37 1005.2
20220705162438 84 314 0.0 0.0 0.00 0.00 0.00 37 1005.2
20220705162356 84 314 0.0 0.0 0.00 0.00 0.00 37 1005.2
20220705162109 84 314 0.0 0.0 0.00 0.00 0.00 38 1005.2
20220705162005 84 314 0.0 0.0 0.00 0.00 0.00 38 1005.2
20220705161926 84 314 0.0 0.0 0.00 0.00 0.00 38 1005.2
20220705161844 84 314 0.0 0.0 0.00 0.00 0.00 39 1005.3
20220705161802 84 314 0.0 0.0 0.00 0.00 0.00 39 1005.1
20220705161722 84 314 0.0 0.0 0.00 0.00 0.00 39 1005.1
20220705161702 84 297 0.0 0.0 0.00 0.00 0.00 39 1005.2
20220705161620 84 288 0.0 0.0 0.00 0.00 0.00 39 1005.2
20220705161517 84 288 0.0 0.0 0.00 0.00 0.00 39 1005.2
20220705161434 84 279 0.0 0.0 0.00 0.00 0.00 39 1005.2
20220705161414 84 278 0.0 0.0 0.00 0.00 0.00 40 1005.2
20220705161249 84 279 0.0 0.0 0.00 0.00 0.00 40 1005.1
20220705161043 85 329 0.0 0.0 0.00 0.00 0.00 41 1005.1
20220705161002 85 329 0.0 0.0 0.00 0.00 0.00 41 1005.2
20220705160920 85 329 0.0 0.0 0.00 0.00 0.00 41 1005.2
20220705160839 85 286 0.0 0.0 0.00 0.00 0.00 41 1005.2
20220705160756 85 286 0.0 0.0 0.00 0.00 0.00 42 1005.2
20220705160631 85 286 0.0 0.0 0.00 0.00 0.00 42 1005.1
20220705160550 85 340 0.0 0.0 0.00 0.00 0.00 42 1005.1
20220705160508 85 340 0.0 0.0 0.00 0.00 0.00 42 1005.1
20220705160426 85 345 0.0 0.0 0.00 0.00 0.00 43 1005.1
20220705160220 85 309 0.0 0.0 0.00 0.00 0.00 43 1005.1
20220705160038 85 340 0.0 0.0 0.00 0.00 0.00 43 1005.0
20220705155934 85 298 0.0 0.0 0.00 0.00 0.00 43 1005.0
20220705155750 85 297 0.0 0.0 0.00 0.00 0.00 43 1005.0
20220705155710 85 297 0.0 0.0 0.00 0.00 0.00 43 1005.0
20220705155629 85 295 0.0 0.0 0.00 0.00 0.00 43 1005.0
20220705155508 85 350 0.0 0.0 0.00 0.00 0.00 43 1005.0
20220705155305 85 325 0.0 0.0 0.00 0.00 0.00 43 1005.0
20220705155141 85 318 0.0 0.0 0.00 0.00 0.00 43 1005.1
20220705154958 85 327 0.0 0.0 0.00 0.00 0.00 43 1005.1
20220705154938 85 328 0.0 0.0 0.00 0.00 0.00 43 1005.1
20220705154858 85 317 0.0 0.0 0.00 0.00 0.00 43 1005.0
20220705154735 86 258 0.0 0.0 0.00 0.00 0.00 43 1005.1
20220705154635 86 294 0.0 0.0 0.00 0.00 0.00 43 1005.0
20220705154531 86 17 0.0 0.0 0.00 0.00 0.00 43 1005.0
20220705154432 86 309 0.0 0.0 0.00 0.00 0.00 42 1005.1
20220705154411 86 285 0.0 0.0 0.00 0.00 0.00 42 1005.0
20220705154349 86 264 0.0 0.0 0.00 0.00 0.00 42 1005.0
20220705154328 86 265 0.0 0.0 0.00 0.00 0.00 42 1005.0
20220705154250 86 277 0.0 0.0 0.00 0.00 0.00 42 1005.0
20220705154146 86 351 0.0 0.0 0.00 0.00 0.00 41 1005.1
20220705154125 86 355 0.0 0.0 0.00 0.00 0.00 41 1005.1
20220705154043 86 355 0.0 0.0 0.00 0.00 0.00 41 1005.0
20220705153940 86 355 0.0 0.0 0.00 0.00 0.00 41 1005.1
20220705153837 86 325 0.0 0.0 0.00 0.00 0.00 41 1005.1
20220705153634 86 316 0.0 0.0 0.00 0.00 0.00 40 1005.1
20220705153553 86 309 0.0 0.0 0.00 0.00 0.00 40 1005.1
20220705153531 86 355 0.0 0.0 0.00 0.00 0.00 40 1005.1
20220705153449 86 5 0.0 0.0 0.00 0.00 0.00 40 1005.0
20220705153428 86 346 0.0 0.0 0.00 0.00 0.00 40 1005.0
20220705153346 86 325 0.0 0.0 0.00 0.00 0.00 39 1005.1
20220705153243 86 334 0.0 0.0 0.00 0.00 0.00 39 1005.1
20220705153201 86 310 0.0 0.0 0.00 0.00 0.00 39 1005.1
20220705153121 86 348 0.0 0.0 0.00 0.00 0.00 39 1005.0
20220705153037 86 287 0.0 0.0 0.00 0.00 0.00 39 1005.0
20220705152955 86 264 0.0 0.0 0.00 0.00 0.00 39 1005.1
20220705152832 86 294 0.0 0.0 0.00 0.00 0.00 39 1005.0
20220705152707 87 321 0.0 0.0 0.00 0.00 0.00 39 1005.1
20220705152605 87 328 0.0 0.0 0.00 0.00 0.00 39 1005.1
20220705152442 87 345 0.0 0.0 0.00 0.00 0.00 39 1005.1
20220705152400 87 327 0.0 0.0 0.00 0.00 0.00 40 1005.1
20220705152316 87 328 0.0 0.0 0.00 0.00 0.00 40 1005.1
20220705152217 87 291 0.0 0.0 0.00 0.00 0.00 40 1005.1
20220705152135 87 292 0.0 0.0 0.00 0.00 0.00 40 1005.1
20220705152011 87 336 0.0 0.0 0.00 0.00 0.00 40 1005.1
20220705151929 87 336 0.0 0.0 0.00 0.00 0.00 40 1005.1
20220705151847 87 336 0.0 0.0 0.00 0.00 0.00 40 1005.1
20220705151805 87 336 0.0 0.0 0.00 0.00 0.00 40 1005.1
20220705151641 86 336 0.0 0.0 0.00 0.00 0.00 39 1005.1
20220705151559 86 292 0.0 0.0 0.00 0.00 0.00 39 1005.1
20220705151434 86 253 0.0 0.0 0.00 0.00 0.00 39 1005.2
20220705151250 86 325 0.0 0.0 0.00 0.00 0.00 38 1005.2
20220705151208 86 283 0.0 0.0 0.00 0.00 0.00 38 1005.1
20220705151126 86 283 0.0 0.0 0.00 0.00 0.00 38 1005.1
20220705151044 86 283 0.0 0.0 0.00 0.00 0.00 38 1005.1
20220705151002 86 280 0.0 0.0 0.00 0.00 0.00 39 1005.1
20220705150839 86 295 0.0 0.0 0.00 0.00 0.00 39 1005.1
20220705150656 86 263 0.0 0.0 0.00 0.00 0.00 39 1005.2
20220705150532 86 347 0.0 0.0 0.00 0.00 0.00 39 1005.1
20220705150511 86 345 0.0 0.0 0.00 0.00 0.00 39 1005.2
20220705150429 86 255 0.0 0.0 0.00 0.00 0.00 39 1005.2
20220705150304 86 360 0.0 0.0 0.00 0.00 0.00 39 1005.1
20220705150141 86 289 0.0 0.0 0.00 0.00 0.00 38 1005.2
20220705150120 86 288 0.0 0.0 0.00 0.00 0.00 38 1005.2
20220705150038 86 278 0.0 0.0 0.00 0.00 0.00 38 1005.2
20220705150017 86 281 0.0 0.0 0.00 0.00 0.00 38 1005.2
20220705145935 87 281 0.0 0.0 0.00 0.00 0.00 38 1005.2
20220705145812 87 277 0.0 0.0 0.00 0.00 0.00 38 1005.2
20220705145647 87 290 0.0 0.0 0.00 0.00 0.00 38 1005.2
20220705145626 87 292 0.0 0.0 0.00 0.00 0.00 38 1005.2
20220705145544 87 273 0.0 0.0 0.00 0.00 0.00 38 1005.2
20220705145341 87 290 0.0 0.0 0.00 0.00 0.00 39 1005.1
20220705145259 87 266 0.0 0.0 0.00 0.00 0.00 39 1005.2
20220705145052 87 275 0.0 0.0 0.00 0.00 0.00 38 1005.2
20220705145010 87 284 0.0 0.0 0.00 0.00 0.00 38 1005.2
20220705144928 87 293 0.0 0.0 0.00 0.00 0.00 38 1005.2
20220705144826 87 281 0.0 0.0 0.00 0.00 0.00 38 1005.2
20220705144725 87 293 0.0 0.0 0.00 0.00 0.00 39 1005.2
20220705144705 87 294 0.0 0.0 0.00 0.00 0.00 39 1005.3
20220705144624 87 294 0.0 0.0 0.00 0.00 0.00 39 1005.3
20220705144502 87 276 0.0 0.0 0.00 0.00 0.00 39 1005.3
20220705144340 87 242 0.0 0.0 0.00 0.00 0.00 39 1005.3
20220705144259 87 242 0.0 0.0 0.00 0.00 0.00 39 1005.2
20220705144217 87 252 0.0 0.0 0.00 0.00 0.00 39 1005.3
20220705144137 87 304 0.0 0.0 0.00 0.00 0.00 40 1005.3
20220705143914 87 319 0.0 0.0 0.00 0.00 0.00 39 1005.2
20220705143852 87 319 0.0 0.0 0.00 0.00 0.00 39 1005.2
20220705143810 87 319 0.0 0.0 0.00 0.00 0.00 39 1005.2
20220705143731 87 319 0.0 0.0 0.00 0.00 0.00 39 1005.2
20220705143608 87 340 0.0 0.0 0.00 0.00 0.00 39 1005.3
20220705143508 87 273 0.0 0.0 0.00 0.00 0.00 39 1005.4
20220705143425 87 273 0.0 0.0 0.00 0.00 0.00 38 1005.4
20220705143404 87 273 0.0 0.0 0.00 0.00 0.00 38 1005.2
20220705143344 87 273 0.0 0.0 0.00 0.00 0.00 38 1005.2
20220705143301 88 249 0.0 0.0 0.00 0.00 0.00 38 1005.1
20220705143219 88 334 0.0 0.0 0.00 0.00 0.00 38 1005.2
20220705143140 88 240 0.0 0.0 0.00 0.00 0.00 38 1005.2
20220705143120 88 244 0.0 0.0 0.00 0.00 0.00 38 1005.3
20220705143038 88 284 0.0 0.0 0.00 0.00 0.00 37 1005.3
20220705142934 88 265 0.0 0.0 0.00 0.00 0.00 37 1005.2
20220705142852 88 275 0.0 0.0 0.00 0.00 0.00 36 1005.3
20220705142810 88 252 0.0 0.0 0.00 0.00 0.00 36 1005.2
20220705142707 88 262 0.0 0.0 0.00 0.00 0.00 35 1005.2
20220705142626 88 269 0.0 0.0 0.00 0.00 0.00 34 1005.2
20220705142543 88 249 0.0 0.0 0.00 0.00 0.00 34 1005.3
20220705142422 88 274 0.0 0.0 0.00 0.00 0.00 34 1005.3
20220705142341 88 285 0.0 0.0 0.00 0.00 0.00 35 1005.2
20220705142300 88 269 0.0 0.0 0.00 0.00 0.00 35 1005.4
20220705142218 88 291 0.0 0.0 0.00 0.00 0.00 35 1005.3
20220705142135 88 306 0.0 0.0 0.00 0.00 0.00 35 1005.3
20220705142052 88 283 0.0 0.0 0.00 0.00 0.00 35 1005.3
20220705142011 88 285 0.0 0.0 0.00 0.00 0.00 35 1005.2
20220705141929 88 304 0.0 0.0 0.00 0.00 0.00 35 1005.2
20220705141907 88 285 0.0 0.0 0.00 0.00 0.00 35 1005.4
20220705141702 88 277 0.0 0.0 0.00 0.00 0.00 35 1005.3
20220705141620 88 273 0.0 0.0 0.00 0.00 0.00 35 1005.3
20220705141559 88 273 0.0 0.0 0.00 0.00 0.00 35 1005.3
20220705141434 88 279 0.0 0.0 0.00 0.00 0.00 36 1005.3
20220705141354 88 287 0.0 0.0 0.00 0.00 0.00 36 1005.3
20220705141253 88 292 0.0 0.0 0.00 0.00 0.00 35 1005.3
20220705141211 88 291 0.0 0.0 0.00 0.00 0.00 35 1005.3
20220705141129 88 294 0.0 0.0 0.00 0.00 0.00 35 1005.3
20220705141046 88 290 0.0 0.0 0.00 0.00 0.00 35 1005.3
20220705140923 88 281 0.0 0.0 0.00 0.00 0.00 36 1005.3
20220705140840 88 267 0.0 0.0 0.00 0.00 0.00 35 1005.3
20220705140737 88 300 0.0 0.0 0.00 0.00 0.00 35 1005.2
20220705140655 88 260 0.0 0.0 0.00 0.00 0.00 35 1005.4
20220705140613 88 274 0.0 0.0 0.00 0.00 0.00 35 1005.5
20220705140532 88 274 0.0 0.0 0.00 0.00 0.00 35 1005.5
20220705140449 88 266 0.0 0.0 0.00 0.00 0.00 35 1005.3
20220705140408 88 274 0.0 0.0 0.00 0.00 0.00 36 1005.3
20220705140326 88 263 0.0 0.0 0.00 0.00 0.00 36 1005.3
20220705140244 88 296 0.0 0.0 0.00 0.00 0.00 36 1005.4
20220705140120 89 244 0.0 0.0 0.00 0.00 0.00 35 1005.4
20220705140038 89 271 0.0 0.0 0.00 0.00 0.00 35 1005.4
20220705135956 89 271 0.0 0.0 0.00 0.00 0.00 35 1005.2
20220705135914 89 271 0.0 0.0 0.00 0.00 0.00 35 1005.4
20220705135832 89 314 0.0 0.0 0.00 0.00 0.00 35 1005.4
20220705135750 89 275 0.0 0.0 0.00 0.00 0.00 35 1005.4
20220705135626 89 265 0.0 0.0 0.00 0.00 0.00 35 1005.1
20220705135544 89 274 0.0 0.0 0.00 0.00 0.00 35 1005.3
20220705135402 89 250 0.0 0.0 0.00 0.00 0.00 35 1005.2
20220705135321 89 355 0.0 0.0 0.00 0.00 0.00 35 1005.3
20220705135238 89 302 0.0 0.0 0.00 0.00 0.00 34 1005.3
20220705135155 89 274 0.0 0.0 0.00 0.00 0.00 34 1005.3
20220705135114 89 261 0.0 0.0 0.00 0.00 0.00 34 1005.3
20220705135053 89 279 0.0 0.0 0.00 0.00 0.00 35 1005.3
20220705135031 89 277 0.0 0.0 0.00 0.00 0.00 35 1005.3
20220705134907 89 343 0.0 0.0 0.00 0.00 0.00 35 1005.3
20220705134847 89 280 0.0 0.0 0.00 0.00 0.00 35 1005.3
20220705134826 89 267 0.0 0.0 0.00 0.00 0.00 35 1005.3
20220705134805 89 338 0.0 0.0 0.00 0.00 0.00 35 1005.2
20220705134640 89 264 0.0 0.0 0.00 0.00 0.00 34 1005.4
20220705134517 89 277 0.0 0.0 0.00 0.00 0.00 34 1005.3
20220705134413 89 237 0.0 0.0 0.00 0.00 0.00 34 1005.3
20220705134332 89 236 0.0 0.0 0.00 0.00 0.00 34 1005.3
20220705134150 89 306 0.0 0.0 0.00 0.00 0.00 34 1005.3
20220705134046 89 339 0.0 0.0 0.00 0.00 0.00 34 1005.3
20220705133948 89 271 0.0 0.0 0.00 0.00 0.00 33 1005.3
20220705133905 89 282 0.0 0.0 0.00 0.00 0.00 33 1005.3
20220705133823 89 316 0.0 0.0 0.00 0.00 0.00 33 1005.3
20220705133720 89 235 0.0 0.0 0.00 0.00 0.00 33 1005.3
20220705133556 89 319 0.0 0.0 0.00 0.00 0.00 33 1005.3
20220705133432 89 304 0.0 0.0 0.00 0.00 0.00 34 1005.3
20220705133410 89 286 0.0 0.0 0.00 0.00 0.00 34 1005.3
20220705133349 89 323 0.0 0.0 0.00 0.00 0.00 33 1005.3
20220705133246 89 246 0.0 0.0 0.00 0.00 0.00 33 1005.3
20220705133225 89 252 0.0 0.0 0.00 0.00 0.00 33 1005.3
20220705133205 89 282 0.0 0.0 0.00 0.00 0.00 34 1005.3
20220705133144 89 308 0.0 0.0 0.00 0.00 0.00 34 1005.3
20220705133122 89 266 0.0 0.0 0.00 0.00 0.00 34 1005.3
20220705132958 89 290 0.0 0.0 0.00 0.00 0.00 34 1005.3
20220705132916 89 317 0.0 0.0 0.00 0.00 0.00 34 1005.3
20220705132834 89 271 0.0 0.0 0.00 0.00 0.00 33 1005.3
20220705132752 89 284 0.0 0.0 0.00 0.00 0.00 33 1005.3
20220705132711 89 315 0.0 0.0 0.00 0.00 0.00 33 1005.3
20220705132629 89 341 0.0 0.0 0.00 0.00 0.00 34 1005.3
20220705132547 90 248 0.0 0.0 0.00 0.00 0.00 34 1005.3
20220705132423 90 306 0.0 0.0 0.00 0.00 0.00 35 1005.3
20220705132341 90 304 0.0 0.0 0.00 0.00 0.00 35 1005.3
20220705132216 90 252 0.0 0.0 0.00 0.00 0.00 34 1005.3
20220705132155 90 265 0.0 0.0 0.00 0.00 0.00 34 1005.3
20220705132032 90 346 0.0 0.0 0.00 0.00 0.00 34 1005.3
20220705131950 90 326 0.0 0.0 0.00 0.00 0.00 34 1005.3
20220705131907 90 278 0.0 0.0 0.00 0.00 0.00 35 1005.3
20220705131846 89 286 0.0 0.0 0.00 0.00 0.00 35 1005.3
20220705131805 89 275 0.0 0.0 0.00 0.00 0.00 35 1005.3
20220705131744 89 275 0.0 0.0 0.00 0.00 0.00 35 1005.3
20220705131701 89 313 0.0 0.0 0.00 0.00 0.00 35 1005.3
20220705131640 89 315 0.0 0.0 0.00 0.00 0.00 35 1005.3
20220705131558 89 315 0.0 0.0 0.00 0.00 0.00 35 1005.3
20220705131517 89 311 0.0 0.0 0.00 0.00 0.00 34 1005.4
20220705131310 90 282 0.0 0.0 0.00 0.00 0.00 35 1005.3
20220705131229 90 311 0.0 0.0 0.00 0.00 0.00 35 1005.3
20220705131147 90 5 0.0 0.0 0.00 0.00 0.00 35 1005.2
20220705131105 90 325 0.0 0.0 0.00 0.00 0.00 36 1005.2
20220705131044 90 270 0.0 0.0 0.00 0.00 0.00 36 1005.2
20220705131001 90 256 0.0 0.0 0.00 0.00 0.00 36 1005.4
20220705130920 90 223 0.0 0.0 0.00 0.00 0.00 35 1005.3
20220705130837 90 297 0.0 0.0 0.00 0.00 0.00 35 1005.3
20220705130757 90 360 0.0 0.0 0.00 0.00 0.00 35 1005.3
20220705130714 90 285 0.0 0.0 0.00 0.00 0.00 36 1005.3
20220705130632 90 307 0.0 0.0 0.00 0.00 0.00 36 1005.3
20220705130550 90 324 0.0 0.0 0.00 0.00 0.00 36 1005.3
20220705130426 90 259 0.0 0.0 0.00 0.00 0.00 36 1005.3
20220705130344 90 267 0.0 0.0 0.00 0.00 0.00 35 1005.3
20220705130301 90 224 0.0 0.0 0.00 0.00 0.00 35 1005.2
20220705130219 90 328 0.0 0.0 0.00 0.00 0.00 35 1005.2
20220705130159 90 328 0.0 0.0 0.00 0.00 0.00 35 1005.2
20220705130117 90 300 0.0 0.0 0.00 0.00 0.00 35 1005.3
20220705130035 90 259 0.0 0.0 0.00 0.00 0.00 35 1005.3
20220705125952 90 261 0.0 0.0 0.00 0.00 0.00 35 1005.3
20220705125911 90 300 0.0 0.0 0.00 0.00 0.00 35 1005.3
20220705125829 90 303 0.0 0.0 0.00 0.00 0.00 34 1005.3
20220705125623 90 279 0.0 0.0 0.00 0.00 0.00 35 1005.3
20220705125602 90 268 0.0 0.0 0.00 0.00 0.00 35 1005.3
20220705125458 90 300 0.0 0.0 0.00 0.00 0.00 35 1005.3
20220705125355 90 275 0.0 0.0 0.00 0.00 0.00 35 1005.3
20220705125314 90 5 0.0 0.0 0.00 0.00 0.00 34 1005.4
20220705125252 90 346 0.0 0.0 0.00 0.00 0.00 34 1005.4
20220705125211 90 306 0.0 0.0 0.00 0.00 0.00 34 1005.4
20220705125129 90 306 0.0 0.0 0.00 0.00 0.00 34 1005.4
20220705125047 90 283 0.0 0.0 0.00 0.00 0.00 34 1005.4
20220705124923 90 315 0.0 0.0 0.00 0.00 0.00 34 1005.3
20220705124759 90 250 0.0 0.0 0.00 0.00 0.00 34 1005.3
20220705124717 90 288 0.0 0.0 0.00 0.00 0.00 34 1005.3
20220705124553 90 231 0.0 0.0 0.00 0.00 0.00 33 1005.3
20220705124511 90 263 0.0 0.0 0.00 0.00 0.00 33 1005.4
20220705124450 90 292 0.0 0.0 0.00 0.00 0.00 33 1005.4
20220705124409 90 263 0.0 0.0 0.00 0.00 0.00 33 1005.4
20220705124346 90 242 0.0 0.0 0.00 0.00 0.00 33 1005.4
20220705124305 90 233 0.0 0.0 0.00 0.00 0.00 33 1005.5
20220705124223 90 342 0.0 0.0 0.00 0.00 0.00 34 1005.5
20220705124140 90 287 0.0 0.0 0.00 0.00 0.00 34 1005.4
20220705124059 90 255 0.0 0.0 0.00 0.00 0.00 34 1005.5
20220705124038 90 269 0.0 0.0 0.00 0.00 0.00 34 1005.5
20220705123956 90 252 0.0 0.0 0.00 0.00 0.00 34 1005.4
20220705123935 90 226 0.0 0.0 0.00 0.00 0.00 34 1005.4
20220705123813 90 323 0.0 0.0 0.00 0.00 0.00 34 1005.5
20220705123731 90 272 0.0 0.0 0.00 0.00 0.00 34 1005.5
20220705123710 90 267 0.0 0.0 0.00 0.00 0.00 33 1005.5
20220705123630 90 245 0.0 0.0 0.00 0.00 0.00 33 1005.5
20220705123547 90 248 0.0 0.0 0.00 0.00 0.00 33 1005.5
20220705123525 90 252 0.0 0.0 0.00 0.00 0.00 33 1005.5
20220705123505 90 296 0.0 0.0 0.00 0.00 0.00 33 1005.5
20220705123259 90 292 0.0 0.0 0.00 0.00 0.00 33 1005.7
20220705123135 91 257 0.0 0.0 0.00 0.00 0.00 33 1005.5
20220705123113 91 247 0.0 0.0 0.00 0.00 0.00 32 1005.6
20220705123053 91 229 0.0 0.0 0.00 0.00 0.00 32 1005.6
20220705123011 91 253 0.0 0.0 0.00 0.00 0.00 32 1005.5
20220705122950 91 234 0.0 0.0 0.00 0.00 0.00 32 1005.5
20220705122908 91 250 0.0 0.0 0.00 0.00 0.00 33 1005.5
20220705122744 91 280 0.0 0.0 0.00 0.00 0.00 34 1005.6
20220705122641 91 249 0.0 0.0 0.00 0.00 0.00 33 1005.5
20220705122620 91 226 0.0 0.0 0.00 0.00 0.00 33 1005.4
20220705122413 91 239 0.0 0.0 0.00 0.00 0.00 34 1005.5
20220705122331 91 315 0.0 0.0 0.00 0.00 0.00 33 1005.5
20220705122249 91 349 0.0 0.0 0.00 0.00 0.00 33 1005.6
20220705122208 91 255 0.0 0.0 0.00 0.00 0.00 33 1005.5
20220705122126 91 234 0.0 0.0 0.00 0.00 0.00 33 1005.5
20220705122044 91 243 0.0 0.0 0.00 0.00 0.00 33 1005.6
20220705122023 91 263 0.0 0.0 0.00 0.00 0.00 33 1005.6
20220705122001 91 238 0.0 0.0 0.00 0.00 0.00 33 1005.5
20220705121920 91 324 0.0 0.0 0.00 0.00 0.00 32 1005.5
20220705121838 91 325 0.0 0.0 0.00 0.00 0.00 32 1005.5
20220705121756 91 261 0.0 0.0 0.00 0.00 0.00 32 1005.5
20220705121734 91 270 0.0 0.0 0.00 0.00 0.00 33 1005.5
20220705121652 91 265 0.0 0.0 0.00 0.00 0.00 33 1005.6
20220705121632 91 305 0.0 0.0 0.00 0.00 0.00 33 1005.6
20220705121549 91 242 0.0 0.0 0.00 0.00 0.00 33 1005.5
20220705121343 91 259 0.0 0.0 0.00 0.00 0.00 33 1005.5
20220705121301 91 216 0.0 0.0 0.00 0.00 0.00 33 1005.5
20220705121220 91 216 0.0 0.0 0.00 0.00 0.00 32 1005.5
20220705121138 91 236 0.0 0.0 0.00 0.00 0.00 32 1005.5
20220705121034 91 263 0.0 0.0 0.00 0.00 0.00 32 1005.5
20220705120952 91 298 0.0 0.0 0.00 0.00 0.00 31 1005.5
20220705120911 91 280 0.0 0.0 0.00 0.00 0.00 31 1005.5
20220705120829 91 289 0.0 0.0 0.00 0.00 0.00 31 1005.5
20220705120705 91 276 0.0 0.0 0.00 0.00 0.00 33 1005.5
20220705120644 91 267 0.0 0.0 0.00 0.00 0.00 33 1005.5
20220705120622 91 284 0.0 0.0 0.00 0.00 0.00 33 1005.5
20220705120541 91 253 0.0 0.0 0.00 0.00 0.00 33 1005.5
20220705120500 91 234 0.0 0.0 0.00 0.00 0.00 32 1005.5
20220705120417 91 301 0.0 0.0 0.00 0.00 0.00 32 1005.4
20220705120356 91 309 0.0 0.0 0.00 0.00 0.00 32 1005.4
20220705120232 91 234 0.0 0.0 0.00 0.00 0.00 32 1005.4
20220705120210 91 257 0.0 0.0 0.00 0.00 0.00 32 1005.5
20220705120128 91 264 0.0 0.0 0.00 0.00 0.00 33 1005.5
20220705120108 91 288 0.0 0.0 0.00 0.00 0.00 33 1005.4
20220705120046 91 253 0.0 0.0 0.00 0.00 0.00 32 1005.4
20220705120005 91 265 0.0 0.0 0.00 0.00 0.00 32 1005.4
20220705115923 91 248 0.0 0.0 0.00 0.00 0.00 32 1005.4
20220705115840 91 286 0.0 0.0 0.00 0.00 0.00 32 1005.4
20220705115738 91 270 0.0 0.0 0.00 0.00 0.00 32 1005.4
20220705115717 91 236 0.0 0.0 0.00 0.00 0.00 32 1005.4
20220705115511 91 273 0.0 0.0 0.00 0.00 0.00 33 1005.4
20220705115350 91 259 0.0 0.0 0.00 0.00 0.00 32 1005.4
20220705115308 91 218 0.0 0.0 0.00 0.00 0.00 32 1005.3
20220705115226 91 217 0.0 0.0 0.00 0.00 0.00 32 1005.3
20220705115126 91 246 0.0 0.0 0.00 0.00 0.00 33 1005.3
20220705115044 91 225 0.0 0.0 0.00 0.00 0.00 33 1005.3
20220705115023 91 215 0.0 0.0 0.00 0.00 0.00 33 1005.3
20220705114943 91 257 0.0 0.0 0.00 0.00 0.00 33 1005.3
20220705114720 91 248 0.0 0.0 0.00 0.00 0.00 32 1005.4
20220705114658 91 271 0.0 0.0 0.00 0.00 0.00 32 1005.4
20220705114434 91 240 0.0 0.0 0.00 0.00 0.00 33 1005.3
20220705114414 91 263 0.0 0.0 0.00 0.00 0.00 34 1005.3
20220705114314 91 310 0.0 0.0 0.00 0.00 0.00 33 1005.3
20220705114231 91 319 0.0 0.0 0.00 0.00 0.00 33 1005.3
20220705114149 91 234 0.0 0.0 0.00 0.00 0.00 33 1005.3
20220705114128 91 218 0.0 0.0 0.00 0.00 0.00 33 1005.3
20220705114047 91 234 0.0 0.0 0.00 0.00 0.00 32 1005.4
20220705114005 91 290 0.0 0.0 0.00 0.00 0.00 33 1005.4
20220705113923 91 268 0.0 0.0 0.00 0.00 0.00 33 1005.4
20220705113737 91 275 0.0 0.0 0.00 0.00 0.00 32 1005.3
20220705113634 92 282 0.0 0.0 0.00 0.00 0.00 32 1005.4
20220705113511 92 281 0.0 0.0 0.00 0.00 0.00 32 1005.3
20220705113428 92 290 0.0 0.0 0.00 0.00 0.00 33 1005.3
20220705113346 92 287 0.0 0.0 0.00 0.00 0.00 33 1005.3
20220705113305 92 186 0.0 0.0 0.00 0.00 0.00 33 1005.2
20220705113243 92 234 0.0 0.0 0.00 0.00 0.00 33 1005.2
20220705113202 92 233 0.0 0.0 0.00 0.00 0.00 33 1005.2
20220705113120 92 232 0.0 0.0 0.00 0.00 0.00 32 1005.2
20220705113038 92 294 0.0 0.0 0.00 0.00 0.00 32 1005.2
20220705112955 92 263 0.0 0.0 0.00 0.00 0.00 32 1005.3
20220705112913 92 275 0.0 0.0 0.00 0.00 0.00 32 1005.3
20220705112811 92 296 0.0 0.0 0.00 0.00 0.00 32 1005.2
20220705112750 92 289 0.0 0.0 0.00 0.00 0.00 32 1005.2
20220705112707 92 289 0.0 0.0 0.00 0.00 0.00 32 1005.2
20220705112544 92 289 0.0 0.0 0.00 0.00 0.00 33 1005.2
20220705112523 92 250 0.0 0.0 0.00 0.00 0.00 33 1005.2
20220705112441 92 262 0.0 0.0 0.00 0.00 0.00 33 1005.2
20220705112420 92 240 0.0 0.0 0.00 0.00 0.00 33 1005.2
20220705112338 91 244 0.0 0.0 0.00 0.00 0.00 33 1005.2
20220705112256 91 232 0.0 0.0 0.00 0.00 0.00 33 1005.2
20220705112214 91 290 0.0 0.0 0.00 0.00 0.00 33 1005.2
20220705112131 92 260 0.0 0.0 0.00 0.00 0.00 33 1005.2
20220705112051 92 289 0.0 0.0 0.00 0.00 0.00 33 1005.2
20220705112008 92 236 0.0 0.0 0.00 0.00 0.00 33 1005.2
20220705111947 92 249 0.0 0.0 0.00 0.00 0.00 33 1005.2
20220705111905 92 297 0.0 0.0 0.00 0.00 0.00 33 1005.2
20220705111823 92 254 0.0 0.0 0.00 0.00 0.00 34 1005.2
20220705111802 91 257 0.0 0.0 0.00 0.00 0.00 34 1005.2
20220705111720 91 317 0.0 0.0 0.00 0.00 0.00 34 1005.2
20220705111638 91 273 0.0 0.0 0.00 0.00 0.00 34 1005.2
20220705111431 91 279 0.0 0.0 0.00 0.00 0.00 34 1005.1
20220705111351 91 249 0.0 0.0 0.00 0.00 0.00 34 1005.2
20220705111308 91 271 0.0 0.0 0.00 0.00 0.00 35 1005.1
20220705111143 91 271 0.0 0.0 0.00 0.00 0.00 35 1005.1
20220705111101 91 275 0.0 0.0 0.00 0.00 0.00 35 1005.2
20220705111019 91 259 0.0 0.0 0.00 0.00 0.00 36 1005.3
20220705110958 91 261 0.0 0.0 0.00 0.00 0.00 36 1005.3
20220705110816 91 260 0.0 0.0 0.00 0.00 0.00 35 1005.2
20220705110756 91 259 0.0 0.0 0.00 0.00 0.00 35 1005.2
20220705110716 91 250 0.0 0.0 0.00 0.00 0.00 35 1005.2
20220705110655 91 263 0.0 0.0 0.00 0.00 0.00 35 1005.2
20220705110634 91 279 0.0 0.0 0.00 0.00 0.00 35 1005.2
20220705110552 91 219 0.0 0.0 0.00 0.00 0.00 35 1005.2
20220705110513 91 262 0.0 0.0 0.00 0.00 0.00 35 1005.3
20220705110452 91 273 0.0 0.0 0.00 0.00 0.00 35 1005.3
20220705110411 91 249 0.0 0.0 0.00 0.00 0.00 36 1005.3
20220705110349 91 229 0.0 0.0 0.00 0.00 0.00 36 1005.3
20220705110249 91 265 0.0 0.0 0.00 0.00 0.00 36 1005.2
20220705110146 91 261 0.0 0.0 0.00 0.00 0.00 36 1005.3
20220705110107 91 277 0.0 0.0 0.00 0.00 0.00 36 1005.2
20220705110025 91 259 0.0 0.0 0.00 0.00 0.00 36 1005.2
20220705105943 91 5 0.0 0.0 0.00 0.00 0.00 36 1005.2
20220705105904 91 309 0.0 0.0 0.00 0.00 0.00 36 1005.3
20220705105741 91 298 0.0 0.0 0.00 0.00 0.00 36 1005.2
20220705105620 91 266 0.0 0.0 0.00 0.00 0.00 36 1005.2
20220705105537 91 210 0.0 0.0 0.00 0.00 0.00 36 1005.2
20220705105458 91 234 0.0 0.0 0.00 0.00 0.00 36 1005.3
20220705105334 91 267 0.0 0.0 0.00 0.00 0.00 37 1005.2
20220705105213 91 327 0.0 0.0 0.00 0.00 0.00 37 1005.3
20220705105132 91 284 0.0 0.0 0.00 0.00 0.00 37 1005.3
20220705104929 91 294 0.0 0.0 0.00 0.00 0.00 37 1005.3
20220705104828 91 298 0.0 0.0 0.00 0.00 0.00 37 1005.3
20220705104807 91 254 0.0 0.0 0.00 0.00 0.00 37 1005.3
20220705104726 91 229 0.0 0.0 0.00 0.00 0.00 37 1005.3
20220705104644 91 296 0.0 0.0 0.00 0.00 0.00 37 1005.3
20220705104602 91 294 0.0 0.0 0.00 0.00 0.00 36 1005.2
20220705104520 91 319 0.0 0.0 0.00 0.00 0.00 35 1005.2
20220705104438 91 296 0.0 0.0 0.00 0.00 0.00 35 1005.2
20220705104417 91 280 0.0 0.0 0.00 0.00 0.00 35 1005.3
20220705104335 91 338 0.0 0.0 0.00 0.00 0.00 36 1005.3
20220705104253 91 317 0.0 0.0 0.00 0.00 0.00 36 1005.2
20220705104211 91 251 0.0 0.0 0.00 0.00 0.00 35 1005.2
20220705104107 91 283 0.0 0.0 0.00 0.00 0.00 35 1005.2
20220705104026 91 301 0.0 0.0 0.00 0.00 0.00 34 1005.2
20220705103819 92 321 0.0 0.0 0.00 0.00 0.00 35 1005.2
20220705103758 92 275 0.0 0.0 0.00 0.00 0.00 35 1005.2
20220705103717 92 259 0.0 0.0 0.00 0.00 0.00 35 1005.3
20220705103449 91 289 0.0 0.0 0.00 0.00 0.00 36 1005.3
20220705103410 91 236 0.0 0.0 0.00 0.00 0.00 35 1005.3
20220705103328 91 236 0.0 0.0 0.00 0.00 0.00 35 1005.3
20220705103225 91 223 0.0 0.0 0.00 0.00 0.00 35 1005.3
20220705103102 92 259 0.0 0.0 0.00 0.00 0.00 35 1005.3
20220705102940 92 299 0.0 0.0 0.00 0.00 0.00 35 1005.2
20220705102819 91 287 0.0 0.0 0.00 0.00 0.00 35 1005.2
20220705102738 91 287 0.0 0.0 0.00 0.00 0.00 35 1005.2
20220705102535 91 360 0.0 0.0 0.00 0.00 0.00 35 1005.2
20220705102453 91 53 0.0 0.0 0.00 0.00 0.00 35 1005.2
20220705102413 91 294 0.0 0.0 0.00 0.00 0.00 35 1005.2
20220705102331 91 265 0.0 0.0 0.00 0.00 0.00 35 1005.2
20220705102208 91 340 0.0 0.0 0.00 0.00 0.00 36 1005.3
20220705102146 91 293 0.0 0.0 0.00 0.00 0.00 36 1005.3
20220705101944 90 266 0.0 0.0 0.00 0.00 0.00 36 1005.3
20220705101902 90 333 0.0 0.0 0.00 0.00 0.00 36 1005.3
20220705101822 90 301 0.0 0.0 0.00 0.00 0.00 36 1005.3
20220705101742 90 349 0.0 0.0 0.00 0.00 0.00 36 1005.3
20220705101659 90 269 0.0 0.0 0.00 0.00 0.00 36 1005.3
20220705101537 90 264 0.0 0.0 0.00 0.00 0.00 35 1005.4
20220705101416 91 285 0.0 0.0 0.00 0.00 0.00 35 1005.3
20220705101356 91 281 0.0 0.0 0.00 0.00 0.00 35 1005.3
20220705101313 91 269 0.0 0.0 0.00 0.00 0.00 35 1005.2
20220705101233 91 252 0.0 0.0 0.00 0.00 0.00 35 1005.2
20220705101149 91 298 0.0 0.0 0.00 0.00 0.00 36 1005.3
20220705101109 91 260 0.0 0.0 0.00 0.00 0.00 36 1005.3
20220705101026 91 242 0.0 0.0 0.00 0.00 0.00 36 1005.3
20220705101004 91 239 0.0 0.0 0.00 0.00 0.00 36 1005.2
20220705100944 91 261 0.0 0.0 0.00 0.00 0.00 35 1005.2
20220705100841 91 223 0.0 0.0 0.00 0.00 0.00 35 1005.3
20220705100759 91 252 0.0 0.0 0.00 0.00 0.00 35 1005.3
20220705100737 91 262 0.0 0.0 0.00 0.00 0.00 35 1005.3
20220705100655 91 295 0.0 0.0 0.00 0.00 0.00 35 1005.3
20220705100614 91 302 0.0 0.0 0.00 0.00 0.00 36 1005.3
20220705100531 91 240 0.0 0.0 0.00 0.00 0.00 36 1005.3
20220705100510 91 255 0.0 0.0 0.00 0.00 0.00 35 1005.3
20220705100304 90 298 0.0 0.0 0.00 0.00 0.00 36 1005.3
20220705100223 90 302 0.0 0.0 0.00 0.00 0.00 36 1005.3
20220705100058 90 221 0.0 0.0 0.00 0.00 0.00 35 1005.4
20220705095934 91 316 0.0 0.0 0.00 0.00 0.00 35 1005.4
20220705095913 91 360 0.0 0.0 0.00 0.00 0.00 35 1005.4
20220705095852 91 17 0.0 0.0 0.00 0.00 0.00 35 1005.4
20220705095831 91 271 0.0 0.0 0.00 0.00 0.00 35 1005.4
20220705095753 91 280 0.0 0.0 0.00 0.00 0.00 35 1005.4
20220705095711 91 297 0.0 0.0 0.00 0.00 0.00 35 1005.3
20220705095628 91 308 0.0 0.0 0.00 0.00 0.00 35 1005.3
20220705095549 91 279 0.0 0.0 0.00 0.00 0.00 36 1005.3
20220705095507 91 281 0.0 0.0 0.00 0.00 0.00 36 1005.4
20220705095425 91 294 0.0 0.0 0.00 0.00 0.00 36 1005.4
20220705095346 90 270 0.0 0.0 0.00 0.00 0.00 36 1005.4
20220705095305 90 261 0.0 0.0 0.00 0.00 0.00 36 1005.4
20220705095223 90 260 0.0 0.0 0.00 0.00 0.00 36 1005.4
20220705095101 90 256 0.0 0.0 0.00 0.00 0.00 35 1005.4
20220705094940 90 260 0.0 0.0 0.00 0.00 0.00 35 1005.4
20220705094858 90 225 0.0 0.0 0.00 0.00 0.00 35 1005.4
20220705094656 90 250 0.0 0.0 0.00 0.00 0.00 35 1005.5
20220705094515 90 269 0.0 0.0 0.00 0.00 0.00 35 1005.4
20220705094452 90 223 0.0 0.0 0.00 0.00 0.00 35 1005.4
20220705094410 90 248 0.0 0.0 0.00 0.00 0.00 35 1005.4
20220705094249 90 218 0.0 0.0 0.00 0.00 0.00 35 1005.4
20220705094107 90 246 0.0 0.0 0.00 0.00 0.00 36 1005.4
20220705094046 90 252 0.0 0.0 0.00 0.00 0.00 36 1005.4
20220705094005 90 250 0.0 0.0 0.00 0.00 0.00 35 1005.4
20220705093905 90 253 0.0 0.0 0.00 0.00 0.00 36 1005.3
20220705093740 90 202 0.0 0.0 0.00 0.00 0.00 36 1005.4
20220705093617 89 270 0.0 0.0 0.00 0.00 0.00 36 1005.4
20220705093431 89 290 0.0 0.0 0.00 0.00 0.00 36 1005.4
20220705093410 90 290 0.0 0.0 0.00 0.00 0.00 36 1005.5
20220705093329 90 270 0.0 0.0 0.00 0.00 0.00 35 1005.5
20220705093308 90 267 0.0 0.0 0.00 0.00 0.00 35 1005.5
20220705093226 90 297 0.0 0.0 0.00 0.00 0.00 35 1005.5
20220705093143 90 268 0.0 0.0 0.00 0.00 0.00 35 1005.5
20220705093122 90 287 0.0 0.0 0.00 0.00 0.00 35 1005.5
20220705093041 90 254 0.0 0.0 0.00 0.00 0.00 35 1005.4
20220705092917 90 259 0.0 0.0 0.00 0.00 0.00 35 1005.5
20220705092834 90 224 0.0 0.0 0.00 0.00 0.00 35 1005.5
20220705092752 90 282 0.0 0.0 0.00 0.00 0.00 35 1005.6
20220705092608 90 242 0.0 0.0 0.00 0.00 0.00 36 1005.5
20220705092525 90 216 0.0 0.0 0.00 0.00 0.00 36 1005.5
20220705092405 90 120 0.0 0.0 0.00 0.00 0.00 36 1005.4
20220705092322 90 333 0.0 0.0 0.00 0.00 0.00 36 1005.4
20220705092243 89 22 0.0 0.0 0.00 0.00 0.00 36 1005.5
20220705092202 89 22 0.0 0.0 0.00 0.00 0.00 36 1005.4
20220705092120 90 22 0.0 0.0 0.00 0.00 0.00 35 1005.5
20220705092038 90 21 0.0 0.0 0.00 0.00 0.00 35 1005.5
20220705091955 90 5 0.0 0.0 0.00 0.00 0.00 35 1005.5
20220705091913 90 285 0.0 0.0 0.00 0.00 0.00 35 1005.6
20220705091853 90 258 0.0 0.0 0.00 0.00 0.00 35 1005.6
20220705091831 90 304 0.0 0.0 0.00 0.00 0.00 35 1005.6
20220705091811 90 277 0.0 0.0 0.00 0.00 0.00 35 1005.6
20220705091750 90 290 0.0 0.0 0.00 0.00 0.00 35 1005.6
20220705091709 89 304 0.0 0.0 0.00 0.00 0.00 35 1005.7
20220705091626 89 346 0.0 0.0 0.00 0.00 0.00 35 1005.7
20220705091605 89 344 0.0 0.0 0.00 0.00 0.00 35 1005.7
20220705091544 89 248 0.0 0.0 0.00 0.00 0.00 35 1005.7
20220705091522 89 288 0.0 0.0 0.00 0.00 0.00 35 1005.7
20220705091441 89 233 0.0 0.0 0.00 0.00 0.00 35 1005.7
20220705091420 89 193 0.0 0.0 0.00 0.00 0.00 35 1005.6
20220705091358 89 192 0.0 0.0 0.00 0.00 0.00 35 1005.6
20220705091338 89 187 0.0 0.0 0.00 0.00 0.00 35 1005.6
20220705091317 89 217 0.0 0.0 0.00 0.00 0.00 35 1005.7
20220705091152 89 252 0.0 0.0 0.00 0.00 0.00 35 1005.7
20220705091111 89 270 0.0 0.0 0.00 0.00 0.00 35 1005.7
20220705091029 89 311 0.0 0.0 0.00 0.00 0.00 35 1005.7
20220705090947 89 254 0.0 0.0 0.00 0.00 0.00 35 1005.6
20220705090822 89 283 0.0 0.0 0.00 0.00 0.00 35 1005.6
20220705090720 89 261 0.0 0.0 0.00 0.00 0.00 35 1005.5
20220705090638 89 232 0.0 0.0 0.00 0.00 0.00 35 1005.5
20220705090556 89 232 0.0 0.0 0.00 0.00 0.00 35 1005.6
20220705090535 89 216 0.0 0.0 0.00 0.00 0.00 35 1005.6
20220705090410 89 281 0.0 0.0 0.00 0.00 0.00 35 1005.6
20220705090329 89 281 0.0 0.0 0.00 0.00 0.00 35 1005.6
20220705090228 89 281 0.0 0.0 0.00 0.00 0.00 35 1005.5
20220705090208 90 281 0.0 0.0 0.00 0.00 0.00 35 1005.5
20220705090125 90 279 0.0 0.0 0.00 0.00 0.00 35 1005.5
20220705090047 90 275 0.0 0.0 0.00 0.00 0.00 35 1005.6
20220705090005 90 275 0.0 0.0 0.00 0.00 0.00 35 1005.7
20220705085923 90 275 0.0 0.0 0.00 0.00 0.00 35 1005.7
20220705085841 90 274 0.0 0.0 0.00 0.00 0.00 35 1005.6
20220705085820 90 251 0.0 0.0 0.00 0.00 0.00 35 1005.7
20220705085656 89 251 0.0 0.0 0.00 0.00 0.00 35 1005.8
20220705085532 89 283 0.0 0.0 0.00 0.00 0.00 35 1005.8
20220705085449 89 291 0.0 0.0 0.00 0.00 0.00 34 1005.8
20220705085346 89 311 0.0 0.0 0.00 0.00 0.00 34 1005.9
20220705085326 90 312 0.0 0.0 0.00 0.00 0.00 34 1005.9
20220705085305 90 317 0.0 0.0 0.00 0.00 0.00 34 1005.8
20220705085223 90 325 0.0 0.0 0.00 0.00 0.00 34 1005.8
20220705085141 90 304 0.0 0.0 0.00 0.00 0.00 34 1005.8
20220705085038 89 265 0.0 0.0 0.00 0.00 0.00 34 1005.8
20220705084914 89 320 0.0 0.0 0.00 0.00 0.00 34 1005.8
20220705084852 89 277 0.0 0.0 0.00 0.00 0.00 34 1005.8
20220705084811 89 350 0.0 0.0 0.00 0.00 0.00 35 1005.9
20220705084749 89 350 0.0 0.0 0.00 0.00 0.00 35 1005.9
20220705084647 89 311 0.0 0.0 0.00 0.00 0.00 34 1005.9
20220705084544 89 308 0.0 0.0 0.00 0.00 0.00 34 1005.9
20220705084419 89 307 0.0 0.0 0.00 0.00 0.00 34 1005.8
20220705084316 89 306 0.0 0.0 0.00 0.00 0.00 34 1005.8
20220705084238 89 288 0.0 0.0 0.00 0.00 0.00 34 1005.8
20220705084155 89 290 0.0 0.0 0.00 0.00 0.00 34 1005.8
20220705084113 89 252 0.0 0.0 0.00 0.00 0.00 34 1005.8
20220705084034 89 277 0.0 0.0 0.00 0.00 0.00 34 1005.8
20220705083953 90 268 0.0 0.0 0.00 0.00 0.00 34 1005.8
20220705083931 90 257 0.0 0.0 0.00 0.00 0.00 34 1005.8
20220705083849 89 278 0.0 0.0 0.00 0.00 0.00 33 1005.8
20220705083808 89 282 0.0 0.0 0.00 0.00 0.00 33 1005.8
20220705083725 89 282 0.0 0.0 0.00 0.00 0.00 33 1005.8
20220705083644 89 280 0.0 0.0 0.00 0.00 0.00 33 1005.7
20220705083438 89 299 0.0 0.0 0.00 0.00 0.00 33 1005.7
20220705083314 89 355 0.0 0.0 0.00 0.00 0.00 33 1005.8
20220705083150 89 268 0.0 0.0 0.00 0.00 0.00 33 1005.8
20220705083108 88 76 0.0 0.0 0.00 0.00 0.00 33 1005.8
20220705083046 89 17 0.0 0.0 0.00 0.00 0.00 33 1005.8
20220705083025 88 300 0.0 0.0 0.00 0.00 0.00 33 1005.8
20220705082901 88 274 0.0 0.0 0.00 0.00 0.00 32 1005.9
20220705082819 88 270 0.0 0.0 0.00 0.00 0.00 32 1005.9
20220705082759 88 250 0.0 0.0 0.00 0.00 0.00 32 1005.9
20220705082716 88 250 0.0 0.0 0.00 0.00 0.00 32 1005.9
20220705082635 88 250 0.0 0.0 0.00 0.00 0.00 32 1005.9
20220705082553 88 250 0.0 0.0 0.00 0.00 0.00 32 1005.9
20220705082346 88 250 0.0 0.0 0.00 0.00 0.00 31 1006.0
20220705082305 88 252 0.0 0.0 0.00 0.00 0.00 31 1006.0
20220705082223 88 276 0.0 0.0 0.00 0.00 0.00 31 1006.0
20220705082141 88 265 0.0 0.0 0.00 0.00 0.00 30 1006.0
20220705082038 88 284 0.0 0.0 0.00 0.00 0.00 30 1006.0
20220705081955 88 337 0.0 0.0 0.00 0.00 0.00 30 1006.0
20220705081913 87 338 0.0 0.0 0.00 0.00 0.00 30 1005.9
20220705081832 87 315 0.0 0.0 0.00 0.00 0.00 30 1005.9
20220705081729 87 303 0.0 0.0 0.00 0.00 0.00 31 1006.0
20220705081647 87 303 0.0 0.0 0.00 0.00 0.00 31 1006.1
20220705081605 87 302 0.0 0.0 0.00 0.00 0.00 32 1006.2
20220705081523 87 300 0.0 0.0 0.00 0.00 0.00 33 1006.2
20220705081440 87 331 0.0 0.0 0.00 0.00 0.00 33 1006.1
20220705081319 87 275 0.0 0.0 0.00 0.00 0.00 33 1006.1
20220705081237 87 275 0.0 0.0 0.00 0.00 0.00 33 1006.1
20220705081156 87 276 0.0 0.0 0.00 0.00 0.00 33 1006.1
20220705081116 87 256 0.0 0.0 0.00 0.00 0.00 33 1006.1
20220705080913 87 240 0.0 0.0 0.00 0.00 0.00 33 1006.0
20220705080832 87 225 0.0 0.0 0.00 0.00 0.00 33 1006.0
20220705080750 87 340 0.0 0.0 0.00 0.00 0.00 33 1006.1
20220705080650 87 340 0.0 0.0 0.00 0.00 0.00 33 1006.1
20220705080608 87 340 0.0 0.0 0.00 0.00 0.00 33 1006.1
20220705080526 87 340 0.0 0.0 0.00 0.00 0.00 33 1006.1
20220705080443 87 315 0.0 0.0 0.00 0.00 0.00 33 1006.0
20220705080401 87 314 0.0 0.0 0.00 0.00 0.00 33 1006.0
20220705080321 87 314 0.0 0.0 0.00 0.00 0.00 33 1006.1
20220705080157 87 319 0.0 0.0 0.00 0.00 0.00 33 1006.1
20220705080113 86 304 0.0 0.0 0.00 0.00 0.00 33 1006.1
20220705080053 86 304 0.0 0.0 0.00 0.00 0.00 33 1006.1
20220705075928 86 205 0.0 0.0 0.00 0.00 0.00 32 1006.1
20220705075908 86 213 0.0 0.0 0.00 0.00 0.00 32 1006.1
20220705075826 86 159 0.0 0.0 0.00 0.00 0.00 32 1006.1
20220705075743 86 201 0.0 0.0 0.00 0.00 0.00 32 1006.1
20220705075702 86 240 0.0 0.0 0.00 0.00 0.00 31 1006.1
20220705075641 86 217 0.0 0.0 0.00 0.00 0.00 31 1006.1
20220705075600 86 190 0.0 0.0 0.00 0.00 0.00 31 1006.1
20220705075517 87 190 0.0 0.0 0.00 0.00 0.00 31 1006.1
20220705075456 86 191 0.0 0.0 0.00 0.00 0.00 31 1006.1
20220705075250 86 204 0.0 0.0 0.00 0.00 0.00 30 1006.1
20220705075207 86 255 0.0 0.0 0.00 0.00 0.00 30 1006.1
20220705074940 86 223 0.0 0.0 0.00 0.00 0.00 30 1006.2
20220705074838 86 218 0.0 0.0 0.00 0.00 0.00 28 1006.1
20220705074817 86 229 0.0 0.0 0.00 0.00 0.00 28 1006.2
20220705074756 86 230 0.0 0.0 0.00 0.00 0.00 27 1006.2
20220705074714 86 228 0.0 0.0 0.00 0.00 0.00 27 1006.2
20220705074632 86 237 0.0 0.0 0.00 0.00 0.00 26 1006.2
20220705074426 85 340 0.0 0.0 0.00 0.00 0.00 26 1006.3
20220705074405 85 340 0.0 0.0 0.00 0.00 0.00 26 1006.2
20220705074322 85 355 0.0 0.0 0.00 0.00 0.00 25 1006.2
20220705074241 85 355 0.0 0.0 0.00 0.00 0.00 24 1006.3
20220705074158 85 343 0.0 0.0 0.00 0.00 0.00 24 1006.2
20220705074117 85 297 0.0 0.0 0.00 0.00 0.00 24 1006.2
20220705074035 85 271 0.0 0.0 0.00 0.00 0.00 23 1006.2
20220705073953 85 297 0.0 0.0 0.00 0.00 0.00 23 1006.2
20220705073931 85 279 0.0 0.0 0.00 0.00 0.00 23 1006.2
20220705073807 85 264 0.0 0.0 0.00 0.00 0.00 24 1006.2
20220705073726 85 277 0.0 0.0 0.00 0.00 0.00 25 1006.2
20220705073644 85 175 0.0 0.0 0.00 0.00 0.00 25 1006.2
20220705073601 85 200 0.0 0.0 0.00 0.00 0.00 25 1006.3
20220705073540 85 200 0.0 0.0 0.00 0.00 0.00 24 1006.3
20220705073416 85 226 0.0 0.0 0.00 0.00 0.00 24 1006.4
20220705073355 85 231 0.0 0.0 0.00 0.00 0.00 24 1006.4
20220705073314 85 237 0.0 0.0 0.00 0.00 0.00 24 1006.4
20220705073108 85 246 0.0 0.0 0.00 0.00 0.00 23 1006.4
20220705073026 85 217 0.0 0.0 0.00 0.00 0.00 23 1006.4
20220705072944 85 254 0.0 0.0 0.00 0.00 0.00 22 1006.4
20220705072902 85 244 0.0 0.0 0.00 0.00 0.00 22 1006.3
20220705072737 85 254 0.0 0.0 0.00 0.00 0.00 21 1006.3
20220705072656 85 262 0.0 0.0 0.00 0.00 0.00 20 1006.3
20220705072532 85 283 0.0 0.0 0.00 0.00 0.00 19 1006.3
20220705072450 85 304 0.0 0.0 0.00 0.00 0.00 20 1006.4
20220705072325 85 296 0.0 0.0 0.00 0.00 0.00 20 1006.4
20220705072244 85 305 0.0 0.0 0.00 0.00 0.00 20 1006.3
20220705072102 85 288 0.0 0.0 0.00 0.00 0.00 19 1006.4
20220705071856 85 271 0.0 0.0 0.00 0.00 0.00 19 1006.4
20220705071814 85 254 0.0 0.0 0.00 0.00 0.00 19 1006.2
20220705071731 85 272 0.0 0.0 0.00 0.00 0.00 19 1006.2
20220705071650 85 279 0.0 0.0 0.00 0.00 0.00 18 1006.2
20220705071608 85 240 0.0 0.0 0.00 0.00 0.00 17 1006.2
20220705071444 85 249 0.0 0.0 0.00 0.00 0.00 16 1006.2
20220705071402 85 227 0.0 0.0 0.00 0.00 0.00 15 1006.1
20220705071320 85 240 0.0 0.0 0.00 0.00 0.00 16 1006.2
20220705071238 85 239 0.0 0.0 0.00 0.00 0.00 16 1006.2
20220705071032 85 303 0.0 0.0 0.00 0.00 0.00 16 1006.1
20220705070928 85 317 0.0 0.0 0.00 0.00 0.00 18 1006.2
20220705070847 85 242 0.0 0.0 0.00 0.00 0.00 18 1006.1
20220705070805 85 244 0.0 0.0 0.00 0.00 0.00 18 1006.3
20220705070723 85 244 0.0 0.0 0.00 0.00 0.00 19 1006.3
20220705070619 85 250 0.0 0.0 0.00 0.00 0.00 19 1006.2
20220705070456 85 253 0.0 0.0 0.00 0.00 0.00 19 1006.2
20220705070413 85 267 0.0 0.0 0.00 0.00 0.00 20 1006.2
20220705070352 85 300 0.0 0.0 0.00 0.00 0.00 20 1006.2
20220705070105 84 280 0.0 0.0 0.00 0.00 0.00 22 1006.2
20220705070023 84 274 0.0 0.0 0.00 0.00 0.00 23 1006.2
20220705065817 84 253 0.0 0.0 0.00 0.00 0.00 24 1006.3
20220705065652 84 248 0.0 0.0 0.00 0.00 0.00 24 1006.3
20220705065611 84 242 0.0 0.0 0.00 0.00 0.00 24 1006.2
20220705065529 84 268 0.0 0.0 0.00 0.00 0.00 25 1006.2
20220705065508 84 232 0.0 0.0 0.00 0.00 0.00 25 1006.2
20220705065344 84 231 0.0 0.0 0.00 0.00 0.00 24 1006.2
20220705065301 84 231 0.0 0.0 0.00 0.00 0.00 23 1006.3
20220705065221 84 239 0.0 0.0 0.00 0.00 0.00 22 1006.2
20220705065138 84 221 0.0 0.0 0.00 0.00 0.00 22 1006.2
20220705065056 84 277 0.0 0.0 0.00 0.00 0.00 21 1006.2
20220705065035 84 303 0.0 0.0 0.00 0.00 0.00 21 1006.2
20220705064953 84 302 0.0 0.0 0.00 0.00 0.00 21 1006.2
20220705064911 84 250 0.0 0.0 0.00 0.00 0.00 20 1006.2
20220705064705 83 278 0.0 0.0 0.00 0.00 0.00 21 1006.3
20220705064643 83 278 0.0 0.0 0.00 0.00 0.00 21 1006.3